GEFSMA_con_cape1000_090.txt.gz
Probability
42 32 42 52 42 52 58 58 68 68 55 58 55 58 61 55 58 61 81 87 90 90 90 87 90 87 90 81 77 87 94 87 94 94 87 90 87 90 90 74 77 65 52
32 32 35 45 32 35 32 52 39 42 52 48 39 35 35 45 55 52 58 74 87 81 81 81 84 84 84 74 81 81 81 81 84 87 90 87 90 90 84 74 68 74 71
16 23 23 19 23 23 19 29 19 23 23 26 26 26 29 32 26 29 42 61 61 77 77 84 84 77 84 81 74 81 71 74 81 84 90 90 87 94 97 90 68 68 58
6 13 10 10 13 13 13 29 16 16 19 16 26 32 29 29 26 32 35 39 48 39 71 74 81 81 77 71 77 71 68 71 74 81 81 74 81 84 84 94 81 65 52
0 3 6 10 13 10 10 10 23 16 16 13 10 19 32 32 26 13 13 23 35 39 45 55 74 74 77 74 65 61 58 65 68 68 71 74 84 77 71 71 74 65 52
3 0 0 3 3 6 13 13 10 16 10 19 3 6 10 19 19 16 16 10 23 32 35 35 48 45 61 65 65 61 52 58 61 61 65 68 74 71 61 48 52 65 48
3 0 0 3 3 3 3 3 6 6 6 6 6 0 3 3 10 10 3 6 10 23 23 32 35 35 35 48 48 65 48 39 39 48 52 65 52 55 52 52 29 26 29
6 0 3 6 3 3 3 3 3 3 3 3 3 0 0 3 6 0 6 6 0 16 10 6 29 32 23 35 10 26 32 42 35 29 42 39 42 35 32 42 23 13 13
6 6 3 3 3 6 3 3 3 3 0 0 3 0 0 0 3 3 0 3 3 6 0 13 13 23 16 19 13 6 13 13 16 23 29 42 32 16 13 26 23 19 13
10 10 3 3 3 0 3 0 0 0 3 3 0 0 0 0 0 0 0 0 0 0 0 0 0 10 13 23 6 0 3 6 10 16 29 35 26 16 10 16 26 29 19
16 6 3 3 6 3 0 0 0 0 0 0 0 0 0 0 0 0 0 0 0 0 0 3 0 3 10 16 6 0 0 3 3 10 16 26 23 13 19 19 19 26 32
35 13 3 6 6 3 0 0 0 0 0 0 0 0 0 0 0 0 0 0 0 0 0 0 0 0 0 0 0 0 0 0 0 0 0 3 6 10 13 16 23 23 19
32 48 3 29 3 3 0 0 0 0 0 0 0 0 0 0 0 0 0 0 0 0 3 0 3 0 0 3 0 0 0 0 0 0 0 0 0 3 6 10 13 13 16
42 42 39 32 6 6 0 3 0 0 0 0 0 0 0 0 0 0 0 0 0 0 0 0 0 0 0 0 0 0 0 0 0 0 0 0 0 0 0 0 0 0 0
23 39 39 26 23 10 3 3 0 0 0 0 0 0 0 0 0 0 0 0 0 0 0 0 0 0 0 0 0 0 0 0 0 0 0 0 0 0 0 0 0 0 0
45 35 32 29 26 19 13 10 6 10 3 0 10 0 0 0 0 0 0 0 0 0 0 0 0 0 0 0 0 0 0 0 0 0 0 0 0 0 0 0 0 0 0
61 48 39 35 26 23 16 13 10 13 6 6 0 0 0 0 0 0 0 0 0 0 0 0 0 0 0 0 0 0 0 0 0 0 0 0 0 0 0 0 0 0 0
65 61 52 45 26 19 19 19 13 10 10 3 3 0 0 0 10 0 0 0 0 0 0 0 0 0 0 0 0 3 0 0 0 0 0 0 0 0 0 0 0 0 0
74 45 52 52 32 19 19 19 13 13 10 6 6 6 6 3 10 10 10 0 0 0 0 0 0 0 0 0 0 0 0 0 0 0 0 0 0 0 0 0 0 0 0
71 68 58 55 48 35 26 26 19 13 10 6 6 6 6 6 16 16 3 6 3 0 0 0 0 0 0 0 0 0 0 0 0 0 0 0 0 0 0 0 0 0 0
58 71 71 65 61 35 23 23 23 13 19 23 23 26 10 6 6 0 0 0 0 0 0 0 0 0 0 0 0 0 0 0 0 0 0 0 0 0 0 0 0 0 0
81 74 77 68 58 26 3 0 10 16 35 32 26 29 26 10 0 0 0 0 0 0 0 0 0 0 0 0 0 0 0 0 0 0 0 0 0 0 0 0 0 0 0
81 84 74 68 65 45 3 0 0 3 13 23 42 55 16 0 0 0 0 0 0 0 0 0 0 0 0 0 0 0 0 0 0 0 0 0 0 0 0 0 0 0 0
74 77 74 71 65 52 6 0 0 0 0 0 10 16 35 23 3 3 3 0 0 0 0 0 0 0 0 0 0 0 0 0 0 0 0 0 0 0 0 0 0 0 0
71 65 68 68 68 58 16 0 0 0 0 0 0 3 6 13 3 0 0 0 3 0 0 0 0 0 0 0 0 0 0 0 0 0 0 0 0 0 0 0 0 0 0
61 58 61 58 58 55 26 0 0 0 0 3 3 6 0 0 0 0 0 0 0 0 0 0 0 0 0 0 0 0 0 0 0 0 0 0 0 0 0 0 0 0 0

GEFSMA_con_cape1000_096.txt.gz
Probability
3 0 3 3 3 0 0 10 10 10 13 13 10 13 16 19 16 19 19 71 81 87 97 97 97 94 94 94 100 100 97 94 94 97 97 87 87 68 61 61 55 48 45
3 3 3 3 3 3 3 3 3 0 3 3 6 6 10 16 16 16 23 48 84 90 90 94 94 94 94 90 90 94 94 94 100 100 97 97 97 87 65 68 52 58 42
0 0 0 0 0 0 0 0 0 0 0 0 3 3 6 10 19 23 16 13 35 84 90 94 94 94 97 87 84 81 94 97 97 90 90 97 90 94 81 71 65 52 35
0 0 0 0 0 0 0 0 0 0 0 0 0 0 0 3 3 10 10 10 10 23 65 87 87 87 94 87 81 74 84 87 87 84 81 84 90 77 74 68 61 48 26
0 0 0 0 0 0 0 0 0 0 0 0 0 0 0 3 0 0 0 6 6 6 16 42 84 84 81 71 71 74 71 77 74 74 84 81 77 71 55 45 42 26 10
0 0 0 0 0 0 0 0 0 0 0 0 0 0 0 0 0 0 0 0 0 0 0 3 13 32 65 77 77 74 71 65 68 71 74 74 81 68 48 32 23 19 3
0 0 0 0 0 0 0 0 0 0 0 0 0 0 0 0 0 0 0 0 0 0 0 0 0 0 10 39 45 68 65 52 55 65 71 71 71 65 48 19 6 3 6
0 0 0 0 0 0 0 0 0 0 0 0 0 0 0 0 0 0 0 0 0 0 0 0 0 0 0 0 3 29 48 45 39 45 45 52 52 39 32 16 3 3 3
0 0 0 0 0 0 0 0 0 0 0 0 0 0 0 0 0 0 0 0 0 0 0 0 0 0 0 0 0 0 23 23 32 19 19 29 23 6 6 10 16 3 3
0 0 0 0 0 0 0 0 0 0 0 0 0 0 0 0 0 0 0 0 0 0 0 0 0 0 0 0 0 0 3 3 6 10 16 16 10 6 6 3 16 13 6
0 0 0 0 0 0 0 0 0 0 0 0 0 0 0 0 0 0 0 0 0 0 0 0 0 0 0 0 0 0 0 0 0 3 6 10 10 16 13 10 13 13 13
0 0 0 0 0 0 0 0 0 0 0 0 0 0 0 0 0 0 0 0 0 0 0 0 0 0 0 0 0 0 0 0 0 0 0 0 0 0 10 13 6 19 19
0 0 0 0 0 0 0 0 0 0 0 0 0 0 0 0 0 0 0 0 0 0 0 0 0 0 0 0 0 0 0 0 0 0 0 0 0 0 0 3 10 13 10
0 0 0 0 0 0 0 0 0 0 0 0 0 0 0 0 0 0 0 0 0 0 0 0 0 0 0 0 0 0 0 0 0 0 0 0 0 0 0 0 0 0 0
0 0 0 0 0 0 0 0 0 0 0 0 0 0 0 0 0 0 0 0 0 0 0 0 0 0 0 0 0 0 0 0 0 0 0 0 0 0 0 0 0 0 0
0 0 0 0 0 0 0 0 0 0 0 0 0 0 0 0 0 0 0 0 0 0 0 0 0 0 0 0 0 0 0 0 0 0 0 0 0 0 0 0 0 0 0
0 0 0 0 0 0 0 0 0 0 0 0 0 0 0 0 0 0 0 0 0 0 0 0 0 0 0 0 0 0 0 0 0 0 0 0 0 0 0 0 0 0 0
0 0 0 0 0 3 3 0 0 0 0 0 0 0 0 0 0 0 0 0 0 0 0 0 0 0 0 0 0 0 0 0 0 0 0 0 0 0 0 0 0 0 0
3 0 0 0 0 0 3 3 0 0 0 0 0 0 0 0 0 0 0 0 0 0 0 0 0 0 0 0 0 0 0 0 0 0 0 0 0 0 0 0 0 0 0
6 3 3 3 3 3 3 3 3 0 0 0 0 0 0 0 0 0 0 0 0 0 0 0 0 0 0 0 0 0 0 0 0 0 0 0 0 0 0 0 0 0 0
16 0 0 0 0 0 0 0 0 0 0 0 0 0 0 0 0 0 0 0 0 0 0 0 0 0 0 0 0 0 0 0 0 0 0 0 0 0 0 0 0 0 0
16 13 3 0 0 0 0 0 0 0 0 0 0 0 0 0 0 0 0 0 0 0 0 0 0 0 0 0 0 0 0 0 0 0 0 0 0 0 0 0 0 0 0
10 10 6 10 10 0 0 0 0 0 0 0 0 0 0 0 0 0 0 0 0 0 0 0 0 0 0 0 0 0 0 0 0 0 0 0 0 0 0 0 0 0 0
10 6 6 3 3 3 0 0 0 0 0 0 0 0 0 0 0 0 0 0 0 0 0 0 0 0 0 0 0 0 0 0 0 0 0 0 0 0 0 0 0 0 0
3 6 3 3 3 3 0 0 0 0 0 0 0 0 0 0 0 0 0 0 0 0 0 0 0 0 0 0 0 0 0 0 0 0 0 0 0 0 0 0 0 0 0
0 0 0 0 0 0 0 0 0 0 0 0 0 0 0 0 0 0 0 0 0 0 0 0 0 0 0 0 0 0 0 0 0 0 0 0 0 0 0 0 0 0 0

GEFSMA_con_cape1000_102.txt.gz
Probability
3 3 3 3 3 3 6 6 13 13 13 6 23 26 23 29 29 29 32 58 87 94 94 90 94 94 87 94 97 97 94 94 94 97 97 84 81 71 55 52 42 32 26
0 0 0 0 0 0 0 0 0 3 3 6 10 13 13 19 23 26 26 32 71 77 94 94 81 84 77 81 81 87 97 97 97 97 94 87 84 84 68 52 39 32 29
0 0 0 0 0 0 0 0 0 0 0 0 0 10 6 19 23 23 23 26 39 52 77 90 94 87 77 71 71 81 94 94 100 97 97 94 94 87 87 74 58 42 32
0 0 0 0 0 0 0 0 0 0 0 0 0 0 0 10 10 10 16 19 26 29 52 65 81 81 71 65 65 68 87 94 97 97 94 94 87 87 74 74 71 52 19
0 0 0 0 0 0 0 0 0 0 0 0 0 0 0 3 0 6 13 16 13 13 16 26 39 58 65 52 61 61 74 87 94 90 81 81 71 77 71 61 58 45 19
0 0 0 0 0 0 0 0 0 0 0 0 0 0 0 0 0 0 0 0 3 3 6 6 16 16 39 48 55 61 55 65 74 74 65 65 58 74 55 42 42 35 19
0 0 0 0 0 0 0 0 0 0 0 0 0 0 0 0 0 0 0 0 0 0 0 6 6 6 13 19 19 35 35 48 58 65 71 61 58 61 42 35 32 19 19
0 0 0 0 0 0 0 0 0 0 0 0 0 0 0 0 0 0 0 0 0 0 0 0 3 3 6 10 0 13 32 26 35 42 42 45 35 35 29 29 13 3 3
0 0 0 0 0 0 0 0 0 0 0 0 0 0 0 0 0 0 0 0 0 0 0 0 0 0 0 3 0 3 13 23 23 16 26 26 16 13 6 13 3 0 0
0 0 0 0 0 0 0 0 0 0 0 0 0 0 0 0 0 0 0 0 0 0 0 0 0 0 0 3 0 0 0 3 6 13 13 16 10 3 0 3 3 6 3
0 0 0 0 0 0 0 0 0 0 0 0 0 0 0 0 0 0 0 0 0 0 0 0 0 0 0 0 0 0 0 0 0 0 3 10 3 0 0 0 3 3 10
0 0 0 0 0 0 0 0 0 0 0 0 0 0 0 0 0 0 0 0 0 0 0 0 0 0 0 0 0 0 0 0 0 0 0 0 0 3 6 3 3 3 0
0 0 0 0 0 0 0 0 0 0 0 0 0 0 0 0 0 0 0 0 0 0 0 0 0 0 0 0 0 0 0 0 0 0 0 0 0 0 0 3 3 10 3
0 0 0 0 0 0 0 0 0 0 0 0 0 0 0 0 0 0 0 0 0 0 0 0 0 0 0 0 0 0 0 0 0 0 0 0 0 0 0 0 0 0 0
0 0 0 0 0 0 0 0 0 0 0 0 0 0 0 0 0 0 0 0 0 0 0 0 0 0 0 0 0 0 0 0 0 0 0 0 0 0 0 0 0 0 0
0 0 0 0 0 0 0 0 0 0 0 0 0 0 0 0 0 0 0 0 0 0 0 0 0 0 0 0 0 0 0 0 0 0 0 0 0 0 0 0 0 0 0
0 0 0 0 0 0 0 0 0 0 0 0 0 0 0 0 0 0 0 0 0 0 0 0 0 0 0 0 0 0 0 0 0 0 0 0 0 0 0 0 0 0 0
0 0 0 0 0 0 0 0 0 0 0 0 0 0 0 0 0 0 0 0 0 0 0 0 0 0 0 0 0 0 0 0 0 0 0 0 0 0 0 0 0 0 0
0 0 0 0 0 0 0 0 0 0 0 0 0 0 0 0 0 0 0 0 0 0 0 0 0 0 0 0 0 0 0 0 0 0 0 0 0 0 0 0 0 0 0
3 0 0 0 0 0 0 0 0 0 0 0 0 0 0 0 0 0 0 0 0 0 0 0 0 0 0 0 0 0 0 0 0 0 0 0 0 0 0 0 0 0 0
3 3 0 0 0 0 0 0 0 0 0 0 0 0 0 0 0 0 0 0 0 0 0 0 0 0 0 0 0 0 0 0 0 0 0 0 0 0 0 0 0 0 0
3 3 3 6 3 0 0 0 0 0 0 0 0 0 0 0 0 0 0 0 0 0 0 0 0 0 0 0 0 0 0 0 0 0 0 0 0 0 0 0 0 0 0
3 3 3 3 6 3 0 0 0 0 0 0 0 0 0 0 0 0 0 0 0 0 0 0 0 0 0 0 0 0 0 0 0 0 0 0 0 0 0 0 0 0 0
3 3 3 3 3 0 0 0 0 0 0 0 0 0 0 0 0 0 0 0 0 0 0 0 0 0 0 0 0 0 0 0 0 0 0 0 0 0 0 0 0 0 0
3 3 0 0 0 0 0 0 0 0 0 0 0 0 0 0 0 0 0 0 0 0 0 0 0 0 0 0 0 0 0 0 0 0 0 0 0 0 0 0 0 0 0
0 0 0 0 0 0 0 0 0 0 0 0 0 0 0 0 0 0 0 0 0 0 0 0 0 0 0 0 0 0 0 0 0 0 0 0 0 0 0 0 0 0 0

GEFSMA_con_cape1000_108.txt.gz
Probability
48 39 42 48 29 39 45 39 26 32 39 45 39 39 39 48 61 61 87 71 81 84 90 87 77 77 81 81 84 87 90 87 90 84 81 74 71 58 52 42 16 26 23
48 39 35 35 29 26 23 29 23 29 29 26 29 39 42 61 68 65 68 71 77 84 77 68 68 61 68 74 81 84 77 84 94 90 90 81 74 74 52 39 35 29 26
45 35 35 35 23 23 16 23 23 23 26 16 19 23 29 39 52 61 52 61 71 65 58 58 58 61 65 61 65 77 77 87 97 97 94 94 81 77 77 71 45 35 29
35 39 29 26 23 19 19 13 10 6 6 13 19 23 26 35 32 29 32 35 39 48 48 58 65 52 52 52 55 65 74 84 94 97 97 97 87 74 81 81 61 61 35
23 23 16 16 13 16 6 3 6 6 6 6 13 26 23 26 23 16 13 19 26 42 52 45 52 65 45 45 52 55 58 74 81 90 90 94 94 87 81 71 68 68 48
19 10 10 13 3 6 6 3 3 13 3 3 0 0 3 3 6 13 13 10 13 16 16 16 32 32 48 52 61 48 45 55 74 71 74 74 74 90 81 77 71 71 55
13 10 3 10 10 6 6 0 3 3 0 0 0 3 0 0 3 3 3 6 6 6 13 13 16 16 35 29 29 42 42 39 52 65 68 71 74 74 71 55 32 32 26
6 3 3 3 6 10 13 6 6 6 0 0 0 0 0 3 3 0 3 3 0 0 0 0 6 19 16 23 6 26 32 39 39 42 58 58 68 58 52 32 23 16 16
6 3 6 3 3 3 6 10 6 6 3 0 0 0 3 0 3 0 0 0 0 0 0 0 0 6 3 13 16 6 26 35 26 13 26 45 32 26 16 23 23 13 3
10 3 3 3 3 0 3 3 3 0 3 3 0 0 0 3 0 0 0 0 0 3 3 0 3 0 3 10 3 0 6 16 10 6 13 19 19 16 13 16 16 16 13
6 6 6 3 3 3 3 3 3 0 3 0 0 0 0 0 0 0 6 6 3 3 6 3 3 3 3 6 10 6 0 0 0 3 6 10 10 16 10 6 3 6 10
3 6 6 6 6 0 3 3 0 0 3 3 3 0 0 0 0 0 0 6 6 3 3 3 3 3 3 0 0 0 0 0 0 0 0 0 0 0 0 3 0 0 0
3 16 6 10 6 10 3 3 3 0 0 0 3 3 3 0 0 0 0 3 0 3 3 6 3 3 0 0 0 0 0 0 0 0 0 0 0 0 0 0 0 0 3
3 10 23 19 10 13 0 6 0 0 0 0 0 0 3 0 0 0 0 0 3 3 6 0 3 3 0 0 0 0 0 0 0 0 0 0 0 0 0 0 0 0 0
10 13 19 23 19 19 10 10 3 3 3 0 0 0 0 0 0 0 0 0 0 0 0 3 3 0 0 0 0 0 0 0 0 0 0 0 0 0 0 0 0 0 0
16 16 19 19 23 19 19 23 10 10 6 3 3 0 0 0 0 0 0 0 0 0 0 0 0 0 0 0 0 0 0 0 0 0 0 0 0 0 0 0 0 0 0
45 45 42 29 23 23 26 35 19 10 10 10 3 0 3 0 0 0 0 0 0 0 0 0 0 0 0 0 0 0 0 0 0 0 0 0 0 0 0 0 0 0 0
55 48 48 45 29 26 39 42 29 19 23 19 19 10 10 3 10 3 3 0 0 0 0 0 0 0 0 3 3 10 0 0 0 0 0 0 0 0 0 0 0 0 0
48 39 42 45 35 35 45 45 45 32 26 19 19 16 16 16 23 23 13 0 0 0 0 3 0 3 0 3 6 6 0 10 0 0 0 0 0 0 0 0 0 0 0
52 52 52 48 42 35 35 39 35 35 35 29 23 19 23 23 23 23 23 19 16 13 13 6 6 3 6 10 6 6 6 13 6 0 0 0 0 0 0 0 0 0 0
42 45 52 42 35 26 26 29 32 26 32 29 19 19 19 13 6 10 0 13 16 16 13 16 10 6 6 19 16 13 10 6 6 3 6 0 0 0 0 0 0 0 0
55 48 45 35 32 19 3 3 3 23 26 23 29 19 10 6 0 0 0 0 0 6 16 13 13 10 13 13 19 3 10 3 3 0 6 0 3 3 0 0 0 0 0
45 42 42 35 29 13 0 0 0 6 23 23 19 23 10 6 3 6 0 0 0 0 0 6 3 10 16 16 6 10 13 10 6 13 13 6 0 0 3 0 0 0 0
32 35 23 19 26 6 0 0 0 0 10 10 10 10 10 6 3 3 3 3 3 3 0 0 0 6 10 13 13 13 10 13 13 13 10 3 0 0 0 0 0 0 0
23 23 19 13 13 3 0 0 0 3 3 3 3 0 3 3 3 0 0 3 3 6 0 0 0 0 0 0 3 3 10 6 0 0 13 6 0 0 0 0 0 0 0
13 13 10 6 6 6 0 0 0 0 3 3 3 0 0 0 0 0 0 0 3 6 6 3 0 0 0 0 0 0 3 6 6 3 3 13 3 3 0 0 0 0 0

GEFSMA_con_cape1000_114.txt.gz
Probability
74 74 77 77 65 71 71 74 77 58 55 55 58 61 55 68 61 71 81 94 94 90 87 81 74 71 74 81 84 74 74 71 74 74 81 74 68 58 42 45 23 16 16
74 71 71 74 68 71 65 71 65 61 61 68 61 71 55 61 81 81 77 87 94 94 84 81 71 65 71 71 68 77 77 74 84 81 87 84 71 61 45 42 29 29 19
65 61 65 68 65 58 48 58 45 52 61 55 61 61 71 77 84 81 71 74 77 84 84 87 77 74 74 65 65 68 84 87 84 87 94 84 74 74 68 68 52 39 26
55 61 65 61 58 48 48 58 52 48 55 65 71 71 71 81 74 71 65 68 71 52 71 81 81 74 77 68 61 68 81 87 90 87 87 100 84 77 77 77 68 52 35
42 52 68 61 39 39 42 26 52 52 48 55 48 65 61 71 58 52 58 61 77 68 52 68 81 81 68 61 71 58 68 81 87 94 90 94 90 90 81 81 68 55 52
39 42 55 35 29 35 39 39 48 42 45 42 3 10 48 55 52 52 42 55 65 48 48 39 48 48 61 71 68 65 61 65 74 81 77 90 94 94 81 77 68 68 58
39 39 35 29 32 35 32 32 26 26 32 35 26 26 26 19 19 35 29 39 42 42 52 52 32 23 26 52 71 71 61 58 65 77 84 81 81 81 77 68 58 42 48
35 16 42 29 19 32 29 29 26 29 26 29 26 16 13 13 26 6 32 32 26 29 29 23 35 55 19 13 6 45 61 58 55 52 65 68 71 65 48 48 35 29 19
23 23 23 23 26 32 29 26 29 26 23 19 10 26 23 16 23 23 10 10 16 19 19 23 16 23 29 29 19 13 58 52 45 39 52 48 45 35 29 29 23 23 13
23 23 10 16 23 29 35 29 26 26 26 19 23 13 19 32 13 13 13 13 13 19 10 3 6 19 23 23 26 6 32 35 35 35 35 35 32 23 16 26 19 23 16
35 23 16 16 19 26 23 19 29 26 23 32 19 16 16 19 10 10 6 6 10 13 10 10 13 13 23 19 10 0 3 10 23 19 16 26 26 23 19 23 19 23 23
48 29 19 26 26 26 23 13 16 13 23 26 29 29 10 6 6 13 6 6 6 6 6 6 6 19 16 13 3 0 0 0 0 0 0 3 3 10 19 16 10 13 10
45 61 16 45 32 39 13 13 16 26 23 19 16 32 35 16 10 10 13 6 6 13 13 16 16 13 3 3 0 0 0 0 0 0 0 0 0 0 0 3 3 3 3
48 68 68 55 45 35 13 19 19 23 19 16 13 13 35 23 6 3 0 6 0 3 13 6 6 6 3 13 3 0 0 0 0 0 0 0 0 0 0 0 0 0 3
55 65 61 58 55 42 32 48 45 32 32 19 23 23 16 23 13 3 6 6 10 0 0 13 3 3 19 23 0 0 3 0 0 0 0 0 0 0 0 0 0 0 0
61 65 61 55 61 52 45 48 55 39 32 35 39 35 29 26 19 13 0 0 3 3 3 3 13 6 10 3 0 0 6 0 0 0 0 0 0 0 0 0 0 0 0
71 58 68 68 61 58 55 52 48 48 29 39 26 19 23 23 29 32 19 3 3 3 3 13 6 26 23 13 0 0 13 0 0 0 0 0 0 0 0 0 0 0 0
68 71 55 61 61 48 55 52 52 39 39 29 32 26 23 19 42 23 23 19 19 19 10 6 16 29 32 29 29 26 3 3 3 0 0 0 0 0 0 0 0 0 0
55 55 61 58 58 55 61 55 55 55 52 42 42 42 35 29 42 42 39 16 26 10 19 10 13 23 39 19 29 10 6 10 0 0 0 0 0 0 0 0 0 0 0
58 52 52 45 52 48 45 52 48 52 48 42 48 42 39 35 35 45 29 35 26 26 29 16 10 10 16 19 23 10 3 13 6 0 0 0 0 0 0 0 0 0 0
42 55 55 58 48 29 19 23 42 29 45 45 32 26 23 23 16 13 6 23 16 13 10 6 10 6 6 10 6 6 0 6 13 13 10 0 0 0 0 0 0 0 0
48 52 39 32 29 6 0 0 10 29 29 35 29 19 19 10 6 3 0 0 0 3 6 3 3 3 3 3 3 3 3 0 0 6 6 0 0 0 0 0 0 0 0
32 39 23 19 13 0 0 0 0 6 16 23 19 23 6 3 3 3 3 0 0 0 0 0 0 0 6 3 3 0 0 0 0 0 0 0 0 3 6 0 0 0 0
23 19 16 13 10 3 0 0 0 3 10 10 6 6 10 6 0 6 6 3 3 6 0 0 0 0 0 6 6 0 0 0 0 0 0 0 0 0 0 0 0 0 0
13 10 10 6 6 3 0 0 0 6 3 3 0 3 3 3 0 0 0 3 3 3 0 0 0 0 0 0 0 0 0 0 0 0 0 0 0 0 0 0 3 0 0
6 6 6 6 3 0 0 0 0 3 6 3 3 3 0 0 0 0 0 0 0 0 0 0 0 0 0 0 0 0 0 0 0 0 0 0 0 0 0 0 0 0 0

GEFSMA_con_cape1000_120.txt.gz
Probability
0 13 10 6 3 3 6 6 6 6 3 3 3 3 6 3 10 35 65 97 100 97 97 97 97 94 97 97 97 94 94 94 87 81 84 71 68 61 52 32 23 19 26
0 0 0 6 3 3 3 3 0 3 0 0 0 0 0 3 10 19 52 84 100 97 97 97 97 94 94 97 100 100 97 84 90 90 94 87 74 65 55 39 26 19 19
0 3 0 0 0 3 0 0 0 0 0 0 0 0 0 3 10 16 42 68 74 94 97 94 97 97 94 77 81 90 97 94 94 94 90 94 81 71 68 61 55 35 23
0 3 3 0 0 0 3 3 0 0 0 0 0 0 0 0 10 10 16 29 55 68 81 87 87 87 84 81 77 87 87 94 87 87 84 87 84 81 71 65 55 39 19
6 6 3 0 0 0 0 0 0 0 0 0 0 0 0 0 0 6 10 16 13 19 32 71 84 84 77 71 68 77 84 90 90 87 81 84 81 81 77 68 61 39 23
3 0 0 0 0 0 0 0 0 0 0 0 0 0 0 0 0 0 3 6 6 10 10 23 52 65 74 74 74 71 68 77 87 87 87 77 81 87 77 68 58 39 29
0 0 0 0 0 0 0 0 0 0 0 0 0 0 0 0 0 0 0 3 0 3 6 10 10 10 19 61 71 77 68 61 65 81 84 90 84 74 71 68 42 35 29
0 0 3 0 0 0 0 0 0 0 0 0 0 0 0 0 0 0 0 0 0 3 3 10 3 3 0 0 13 48 74 68 45 68 77 81 74 68 61 52 35 16 16
3 0 0 0 0 0 0 0 0 0 0 0 0 0 0 0 0 0 0 0 0 0 0 6 6 0 0 0 0 3 52 61 65 55 61 71 61 58 45 45 35 26 13
3 0 0 0 0 0 0 0 0 0 0 0 0 0 0 0 0 0 0 0 0 0 0 0 0 0 0 0 0 0 10 19 45 52 48 52 52 35 23 19 35 32 23
0 3 0 0 0 0 0 0 0 0 0 0 0 0 0 0 0 0 0 0 0 0 0 0 0 0 0 0 0 0 0 6 10 29 48 39 39 42 26 19 13 16 19
0 0 0 0 0 0 0 0 0 0 0 0 0 0 0 0 0 0 0 0 0 0 0 0 0 0 0 0 0 0 0 0 0 0 6 13 13 23 23 13 10 6 6
0 0 0 0 0 0 0 0 0 0 0 0 0 0 0 0 0 0 0 0 0 0 0 0 0 0 0 0 0 0 0 0 0 0 0 0 0 0 3 10 13 13 10
0 0 0 0 3 0 0 0 0 0 0 0 0 0 0 0 0 0 0 0 0 0 0 0 0 0 0 0 0 0 0 0 0 0 0 0 0 0 0 0 0 0 0
0 0 0 3 3 3 0 0 0 0 0 0 0 0 0 0 0 0 0 0 0 0 0 0 0 0 0 0 0 0 0 0 0 0 0 0 0 0 0 0 0 0 0
0 3 3 3 3 3 0 0 0 3 3 3 0 3 3 0 0 0 0 0 0 0 0 0 0 0 0 0 0 0 0 0 0 0 0 0 0 0 0 0 0 0 0
3 3 3 3 3 0 0 0 3 3 3 3 0 0 0 0 0 0 0 0 0 0 0 0 0 0 0 0 0 0 0 0 0 0 0 0 0 0 0 0 0 0 0
0 3 0 0 0 0 0 0 0 3 3 3 0 0 0 0 0 0 0 0 0 0 0 0 0 0 0 0 0 0 0 0 0 0 0 0 0 0 0 0 0 0 0
0 0 0 0 0 0 0 0 0 0 0 0 0 0 0 0 0 0 0 0 0 0 0 0 0 0 0 0 0 0 0 0 0 0 0 0 0 0 0 0 0 0 0
3 0 0 0 0 0 0 0 0 0 0 0 0 0 0 0 0 0 0 0 0 0 0 0 0 0 0 0 0 0 0 0 0 0 0 0 0 0 0 0 0 0 0
3 0 0 0 0 0 0 0 0 0 0 0 0 0 0 0 0 0 0 0 0 0 0 0 0 0 0 0 0 0 0 0 0 0 0 0 0 0 0 0 0 0 0
3 0 0 0 0 0 0 0 0 0 0 0 0 0 0 0 0 0 0 0 0 0 0 0 0 0 0 0 0 0 0 0 0 0 0 0 0 0 0 0 0 0 0
0 0 0 0 0 0 0 0 0 0 0 0 0 0 0 0 0 0 0 0 0 0 0 0 0 0 0 0 0 0 0 0 0 0 0 0 0 0 0 0 0 0 0
0 0 0 0 0 0 0 0 0 0 0 0 0 0 0 0 0 0 0 0 0 0 0 0 0 0 0 0 0 0 0 0 0 0 0 0 0 0 0 0 0 0 0
0 0 0 0 0 0 0 0 0 0 0 0 0 0 0 0 0 0 0 0 0 0 0 0 0 0 0 0 0 0 0 0 0 0 0 0 0 0 0 0 0 0 0
0 0 0 0 0 0 0 0 0 0 0 0 0 0 0 0 0 0 0 0 0 0 0 0 0 0 0 0 0 0 0 0 0 0 0 0 0 0 0 0 0 0 0

GEFSMA_con_cape1000_126.txt.gz
Probability
10 6 10 10 10 3 0 0 0 0 0 3 3 13 19 26 32 39 71 94 97 94 94 84 87 87 90 87 87 87 87 84 74 74 68 52 45 39 35 26 26 26 19
3 3 3 3 0 0 0 0 0 0 0 0 3 6 13 26 39 42 55 84 94 97 94 90 84 87 87 84 90 84 90 90 84 71 65 65 61 48 39 26 26 19 19
3 3 3 3 0 0 0 0 0 0 0 0 0 0 3 19 29 39 52 68 77 90 94 90 87 90 84 84 87 84 90 87 94 94 81 77 68 55 55 55 35 23 19
3 3 3 3 0 0 0 0 0 0 0 0 0 0 0 3 19 29 45 55 68 74 84 84 87 84 74 74 71 74 90 97 94 94 81 77 61 58 55 48 42 32 23
3 3 3 0 0 0 0 0 0 0 0 0 0 0 0 0 3 10 26 35 48 52 61 68 77 74 71 58 58 65 77 87 97 87 81 77 65 65 65 55 42 35 26
3 3 3 0 0 0 0 0 0 0 0 0 0 0 0 0 0 0 3 16 19 23 29 42 58 55 58 71 65 71 61 68 84 81 77 74 74 74 71 65 48 45 32
3 0 3 0 0 0 0 0 0 0 0 0 0 0 0 0 0 0 0 3 13 13 19 23 29 39 45 52 58 61 58 52 74 74 71 71 74 77 68 68 35 35 32
0 0 0 0 0 0 0 0 0 0 0 0 0 0 0 0 0 0 0 0 3 3 6 6 16 23 19 26 10 42 61 58 52 55 61 71 68 65 65 58 35 29 35
0 0 0 0 0 0 0 0 0 0 0 0 0 0 0 0 0 0 0 0 0 0 0 6 6 10 10 13 10 0 45 45 39 32 39 61 61 52 48 42 45 29 16
0 0 0 0 0 0 0 0 0 0 0 0 0 0 0 0 0 0 0 0 0 0 0 0 3 3 6 6 0 0 0 16 42 42 48 61 61 48 42 35 39 42 32
0 0 0 0 0 0 0 0 0 0 0 0 0 0 0 0 0 0 0 0 0 0 0 0 0 0 0 0 0 0 0 0 6 23 32 42 48 42 42 39 32 29 29
0 0 0 0 0 0 0 0 0 0 0 0 0 0 0 0 0 0 0 0 0 0 0 0 0 0 0 0 0 0 0 0 0 0 3 13 26 32 39 42 29 19 16
0 0 0 0 0 0 0 0 0 0 0 0 0 0 0 0 0 0 0 0 0 0 0 0 0 0 0 0 0 0 0 0 0 0 0 0 3 6 13 16 16 10 10
0 0 0 0 0 0 0 0 0 0 0 0 0 0 0 0 0 0 0 0 0 0 0 0 0 0 0 0 0 0 0 0 0 0 0 0 0 0 0 0 0 3 3
0 0 0 0 0 0 0 0 0 0 0 0 0 0 0 0 0 0 0 0 0 0 0 0 0 0 0 0 0 0 0 0 0 0 0 0 0 0 0 0 0 0 0
0 0 0 0 0 0 0 0 0 0 0 0 0 0 0 0 0 0 0 0 0 0 0 0 0 0 0 0 0 0 0 0 0 0 0 0 0 0 0 0 0 0 0
0 0 0 0 0 0 0 0 0 0 0 0 0 0 0 0 0 0 0 0 0 0 0 0 0 0 0 0 0 0 0 0 0 0 0 0 0 0 0 0 0 0 0
0 0 0 0 0 0 0 0 0 0 0 0 0 0 0 0 0 0 0 0 0 0 0 0 0 0 0 0 0 0 0 0 0 0 0 0 0 0 0 0 0 0 0
0 0 0 0 0 0 0 0 0 0 0 0 0 0 0 0 0 0 0 0 0 0 0 0 0 0 0 0 0 0 0 0 0 0 0 0 0 0 0 0 0 0 0
0 0 0 0 0 0 0 0 0 0 0 0 0 0 0 0 0 0 0 0 0 0 0 0 0 0 0 0 0 0 0 0 0 0 0 0 0 0 0 0 0 0 0
0 0 0 0 0 0 0 0 0 0 0 0 0 0 0 0 0 0 0 0 0 0 0 0 0 0 0 0 0 0 0 0 0 0 0 0 0 0 0 0 0 0 0
0 0 0 0 0 0 0 0 0 0 0 0 0 0 0 0 0 0 0 0 0 0 0 0 0 0 0 0 0 0 0 0 0 0 0 0 0 0 0 0 0 0 0
0 0 0 0 0 0 0 0 0 0 0 0 0 0 0 0 0 0 0 0 0 0 0 0 0 0 0 0 0 0 0 0 0 0 0 0 0 0 0 0 0 0 0
0 0 0 0 0 0 0 0 0 0 0 0 0 0 0 0 0 0 0 0 0 0 0 0 0 0 0 0 0 0 0 0 0 0 0 0 0 0 0 0 0 0 0
0 0 0 0 0 0 0 0 0 0 0 0 0 0 0 0 0 0 0 0 0 0 0 0 0 0 0 0 0 0 0 0 0 0 0 0 0 0 0 0 0 0 0
0 0 0 0 0 0 0 0 0 0 0 0 0 0 0 0 0 0 0 0 0 0 0 0 0 0 0 0 0 0 0 0 0 0 0 0 0 0 0 0 0 0 0

GEFSMA_con_cape1000_132.txt.gz
Probability
68 61 71 74 48 52 55 48 45 55 48 52 39 58 55 61 52 39 94 84 84 87 81 74 81 84 84 87 87 71 68 71 68 65 55 52 42 35 32 29 23 19 13
61 55 65 68 48 39 39 39 35 58 48 52 45 52 61 52 68 61 71 87 84 84 74 77 74 77 74 71 74 81 74 71 74 68 58 52 52 45 29 26 23 13 10
68 48 45 48 39 35 48 39 39 39 45 42 45 55 55 58 45 55 45 68 77 84 81 77 68 74 68 71 74 68 74 77 81 77 71 61 55 52 39 29 26 23 19
74 77 55 45 45 26 39 29 26 19 19 26 45 35 52 68 55 55 48 55 68 55 74 77 74 74 71 68 74 74 81 81 90 81 81 65 58 55 48 55 35 39 29
61 52 55 55 35 29 32 23 26 13 19 29 26 39 26 39 61 19 39 39 52 61 71 77 74 77 65 61 65 71 68 81 81 81 84 74 71 71 55 58 52 45 29
55 42 48 39 26 29 35 32 29 29 29 39 6 13 19 16 23 29 19 26 35 35 32 42 65 61 61 58 61 58 55 61 77 74 81 81 71 74 71 65 61 45 35
52 61 26 45 35 32 29 19 26 26 23 26 23 19 16 13 13 39 32 39 23 32 32 45 45 42 58 58 58 61 55 55 58 65 65 65 68 77 71 68 61 48 42
58 35 35 29 35 39 32 29 29 19 19 16 16 16 6 6 19 6 23 23 19 29 13 10 23 45 29 26 23 58 58 55 55 58 68 68 65 71 65 61 65 61 45
55 39 26 26 26 23 26 42 35 32 19 16 13 6 10 6 6 0 10 10 19 19 16 23 19 35 32 26 32 35 48 61 55 42 58 61 65 58 58 55 55 52 42
35 29 29 32 39 26 29 23 10 16 23 10 13 16 13 6 6 16 10 3 6 13 3 0 3 13 26 19 35 10 26 35 39 45 55 65 61 48 45 45 45 52 58
32 29 26 29 35 35 19 16 13 19 10 16 13 3 3 3 0 16 10 6 3 0 0 0 3 3 6 19 23 13 3 6 16 35 55 58 58 61 48 35 26 32 42
48 32 26 29 32 19 26 26 23 19 23 23 19 6 13 6 10 6 3 3 10 3 3 6 0 0 3 6 10 6 3 3 0 0 6 23 26 39 48 39 29 29 26
39 35 23 29 29 32 29 19 29 16 19 29 23 10 6 3 6 3 3 3 3 3 3 3 3 3 0 10 16 3 6 0 0 0 0 0 0 6 23 26 29 26 29
35 29 26 23 23 26 13 23 16 16 19 19 6 13 10 3 6 3 3 3 6 3 6 3 3 0 0 6 0 0 6 0 0 0 0 0 0 0 0 6 6 6 10
19 26 23 23 23 23 19 29 19 19 23 6 3 10 13 10 10 10 6 6 6 3 3 3 3 3 6 10 0 10 16 0 0 0 0 0 0 0 0 0 0 0 0
29 39 29 29 29 35 45 45 23 23 26 16 29 10 10 6 6 3 10 6 10 3 10 3 6 3 3 0 0 3 6 0 0 0 0 0 0 0 0 0 0 0 0
61 45 48 39 35 32 42 48 19 13 13 16 13 10 13 13 13 19 6 6 6 10 3 6 10 3 13 19 13 6 3 10 0 0 0 0 0 0 0 0 0 0 0
48 45 35 32 29 23 26 23 23 13 10 10 6 10 6 3 6 16 23 10 13 10 6 6 13 13 13 13 16 35 0 0 0 0 0 0 0 0 0 0 0 0 0
39 42 42 29 26 29 29 35 19 13 10 6 6 6 6 10 16 16 13 13 13 6 23 13 16 10 16 6 6 6 0 10 0 0 0 0 0 0 0 0 0 0 0
39 42 32 29 26 23 19 16 10 10 10 10 10 10 6 6 10 16 13 23 23 13 16 19 10 10 10 3 6 3 6 10 0 0 0 0 0 0 0 0 0 0 0
29 35 29 23 23 16 16 16 13 3 10 6 6 3 3 0 0 0 0 6 13 16 16 16 13 16 6 10 6 6 0 0 3 0 3 0 0 0 0 0 0 0 0
29 29 23 23 23 10 0 0 0 10 6 3 3 3 0 0 0 0 0 0 0 3 6 10 6 6 0 0 3 0 3 6 6 0 0 0 0 0 0 0 0 0 0
19 19 19 16 19 6 0 0 0 6 3 3 3 3 0 0 0 0 0 0 0 0 0 0 0 3 3 3 3 3 3 3 3 0 0 0 0 0 0 0 0 0 0
16 16 13 13 10 6 0 0 0 0 3 3 6 6 6 0 0 0 0 0 0 0 0 0 0 0 0 0 0 0 0 0 0 0 0 0 0 0 0 0 0 0 0
13 13 10 6 10 6 0 0 0 0 3 3 3 0 0 0 0 0 0 0 0 0 0 0 0 0 0 0 0 0 0 0 0 0 0 0 0 0 0 0 0 0 0
6 6 6 6 6 6 0 0 0 0 3 0 0 0 0 0 0 0 0 0 0 0 0 0 0 0 0 0 0 0 0 0 0 0 0 0 0 0 0 0 0 0 0

GEFSMA_con_cape1000_138.txt.gz
Probability
84 84 87 87 81 84 90 84 90 84 77 77 77 65 68 71 68 52 71 94 94 100 94 81 77 68 74 81 74 71 58 45 52 61 48 45 39 32 32 29 26 26 19
87 84 87 87 84 87 87 87 90 90 81 97 90 84 77 77 87 65 61 81 94 94 90 87 71 77 74 74 74 65 68 61 61 65 58 52 52 29 32 23 26 23 19
87 94 90 87 87 84 81 90 87 90 90 90 87 74 84 74 77 81 68 65 74 87 90 84 87 87 74 65 68 71 68 65 68 74 71 68 65 55 42 29 26 26 19
87 97 87 87 87 84 90 94 87 84 84 94 97 87 94 84 68 74 84 84 68 45 77 84 84 81 74 68 68 65 77 84 81 77 81 71 65 61 61 48 35 29 26
84 87 87 87 81 77 77 45 84 87 81 87 71 90 87 90 81 58 71 81 77 77 61 74 84 84 77 65 71 71 81 81 87 81 77 81 68 68 65 61 52 45 39
84 81 77 71 71 74 71 81 77 84 81 74 32 35 74 77 87 77 65 68 77 68 71 48 68 74 81 77 74 74 74 77 81 87 84 84 74 74 68 65 61 55 48
81 81 74 65 71 74 68 61 61 58 65 68 68 45 65 61 68 81 71 61 52 68 65 65 65 58 48 84 77 77 74 71 77 77 90 87 81 77 74 68 68 61 58
74 65 74 65 61 81 61 58 68 71 61 71 61 32 29 32 61 16 65 65 52 58 65 55 71 90 61 35 29 74 81 71 71 71 77 77 77 68 61 61 58 58 48
65 65 65 61 74 65 68 61 61 58 71 65 58 52 26 23 19 55 42 48 58 52 45 48 61 68 71 61 42 35 71 71 74 71 77 77 65 61 61 55 52 48 39
58 61 55 58 58 65 77 68 61 65 65 52 61 68 48 45 26 16 32 29 42 58 35 26 13 45 48 55 58 23 58 58 65 71 71 74 61 52 48 52 48 45 48
58 58 65 61 61 74 68 65 71 58 58 55 55 55 35 45 32 23 6 19 19 35 39 42 26 32 45 42 39 23 23 48 48 52 55 58 58 61 55 52 52 45 48
68 58 58 65 65 65 68 55 55 48 58 65 68 55 42 42 23 19 19 23 26 32 32 39 23 39 35 32 23 10 16 19 10 6 23 35 39 45 45 48 45 39 35
58 68 52 65 65 68 58 55 58 52 55 58 58 58 52 48 35 29 26 19 19 29 45 45 26 39 26 26 23 10 13 0 0 0 0 0 6 16 26 39 42 35 35
52 68 68 61 52 45 39 58 55 39 39 48 26 55 58 48 45 48 35 23 16 19 35 26 32 42 19 39 26 3 6 0 0 0 0 0 0 0 0 3 10 13 13
65 74 68 65 61 55 45 45 39 42 48 42 39 48 52 45 42 35 39 32 19 10 6 23 23 35 35 35 0 0 13 0 0 0 0 0 0 0 0 0 0 0 0
71 68 74 71 58 55 42 48 42 48 55 52 52 52 58 48 32 39 39 29 29 16 16 19 19 29 29 3 3 10 19 3 0 0 0 0 0 0 0 0 0 0 0
68 68 68 74 71 61 61 55 42 58 48 45 32 32 48 42 55 58 42 29 26 23 10 16 19 29 29 26 16 26 19 16 0 0 0 0 0 0 0 0 0 0 0
61 58 61 61 58 45 61 58 52 45 48 29 26 29 26 23 35 35 45 23 32 32 16 13 13 19 19 26 26 23 6 3 6 0 0 0 0 0 0 0 0 0 0
58 52 48 52 45 48 52 39 39 32 35 39 35 26 23 23 23 16 16 19 23 3 13 10 6 13 10 10 13 10 6 13 0 0 0 0 0 0 0 0 0 0 0
52 42 45 42 35 35 32 32 16 23 26 23 23 16 10 6 13 16 6 16 13 16 13 13 13 3 6 6 6 6 3 6 0 0 0 0 0 0 0 0 0 0 0
39 39 32 29 32 29 19 19 16 16 26 26 16 13 3 0 3 3 0 10 10 10 6 3 6 6 3 0 0 0 0 0 0 0 3 0 0 0 0 0 0 0 0
35 32 23 19 19 13 0 3 6 13 19 6 10 6 3 3 0 0 0 0 0 0 6 3 3 3 3 3 3 0 0 0 0 3 0 0 0 0 0 0 0 0 0
23 19 19 19 16 10 0 0 0 3 13 13 13 13 3 0 0 0 0 0 0 0 0 0 0 0 0 3 3 0 0 0 0 0 0 0 0 0 0 0 0 0 0
19 19 16 16 13 10 0 0 0 3 6 6 6 6 3 0 0 0 0 0 0 0 0 0 0 0 0 0 0 0 0 0 0 0 0 0 0 0 0 0 0 0 0
16 16 16 13 13 10 0 0 0 0 3 6 3 3 0 0 0 0 0 0 0 0 0 0 0 0 0 0 0 0 0 0 0 0 0 0 0 0 0 0 0 0 0
10 10 10 10 6 6 0 0 0 0 0 0 0 0 0 0 0 0 0 0 0 0 0 0 0 0 0 0 0 0 0 0 0 0 0 0 0 0 0 0 0 0 0

GEFSMA_con_cape1000_144.txt.gz
Probability
26 23 19 19 23 16 13 16 6 10 0 3 3 6 10 3 6 19 55 100 100 100 97 97 94 90 87 81 71 74 58 55 61 65 61 45 39 45 45 39 32 23 10
26 26 23 16 13 10 10 10 0 0 0 0 6 6 3 3 0 10 32 74 100 100 100 100 90 84 84 71 68 68 61 55 58 74 65 52 48 48 39 35 26 35 16
23 23 16 10 6 6 6 3 0 0 0 0 0 0 0 3 0 6 32 45 68 97 100 100 94 81 81 77 81 74 74 74 77 81 77 65 52 52 55 52 42 32 16
19 16 13 6 6 6 3 0 3 3 0 0 0 0 0 3 0 6 13 32 35 58 90 100 94 97 94 77 74 74 77 81 74 74 65 68 58 48 45 42 45 32 16
23 16 10 6 3 3 3 0 3 0 0 0 0 0 0 0 0 3 6 10 10 19 32 71 94 97 87 81 77 77 77 77 84 74 71 61 58 55 55 45 39 35 19
19 6 3 6 6 3 0 0 0 0 0 0 0 0 0 0 0 0 3 0 6 10 6 29 48 74 87 90 94 94 84 81 81 77 71 74 68 68 58 55 29 35 32
23 10 10 6 6 6 0 0 0 0 0 0 0 0 0 0 0 0 0 0 0 6 6 6 10 16 32 81 90 90 84 81 81 84 74 77 74 84 68 55 48 23 16
13 16 6 6 3 0 0 0 0 0 0 0 0 0 0 0 0 0 0 0 0 0 3 3 0 3 0 6 16 74 87 77 71 71 71 71 71 65 61 52 42 23 16
16 10 6 6 3 0 0 0 0 0 0 0 0 0 0 0 0 0 0 0 0 0 0 3 3 0 3 3 0 16 71 74 68 65 74 71 61 48 48 45 39 26 23
13 6 6 6 3 3 0 0 0 0 0 0 0 0 0 0 0 0 0 0 0 0 0 0 0 0 0 0 0 0 23 52 65 65 74 74 58 55 39 39 39 35 32
10 3 3 3 0 0 0 0 0 0 0 0 0 0 0 0 0 0 0 0 0 0 0 0 0 0 0 3 3 0 10 16 23 52 65 65 68 55 48 39 32 32 35
3 3 6 3 0 0 0 0 0 0 0 0 0 0 0 0 0 0 0 0 0 0 0 0 0 0 0 0 0 10 13 10 3 3 10 19 32 42 42 42 26 23 26
0 3 10 6 3 0 0 0 0 0 0 0 0 0 0 0 0 0 0 0 0 0 0 0 0 0 0 0 0 3 10 3 0 0 3 3 6 10 13 23 26 23 16
0 0 3 6 10 6 6 0 0 0 0 0 0 0 0 0 0 0 0 0 0 0 0 0 0 0 0 0 0 0 0 0 0 0 0 0 0 0 3 3 3 0 0
3 3 0 3 6 3 0 0 0 0 0 0 0 0 0 0 0 0 0 0 0 0 0 0 0 0 0 0 0 0 0 0 0 0 0 0 0 0 0 0 0 0 0
6 6 3 3 3 6 0 0 0 0 0 0 0 0 0 0 0 0 0 0 0 0 0 0 0 0 0 0 0 0 0 0 0 0 0 0 0 0 0 0 0 0 0
3 0 0 0 0 0 0 0 0 0 0 0 0 0 0 0 0 0 0 0 0 0 0 0 0 0 0 0 0 0 0 0 0 0 0 0 0 0 0 0 0 0 0
0 0 0 0 0 0 0 0 0 0 0 0 0 0 0 0 0 0 0 0 0 0 0 0 0 0 0 0 0 0 0 0 0 0 0 0 0 0 0 0 0 0 0
0 0 0 0 0 0 0 0 0 0 0 0 0 0 0 0 0 0 0 0 0 0 0 0 0 0 0 0 0 0 0 0 0 0 0 0 0 0 0 0 0 0 0
3 3 0 0 0 0 0 0 0 0 0 0 0 0 0 0 0 0 0 0 0 0 0 0 0 0 0 0 0 0 0 0 0 0 0 0 0 0 0 0 0 0 0
10 6 3 0 0 0 0 0 0 0 0 0 0 0 0 0 0 0 0 0 0 0 0 0 0 0 0 0 0 0 0 0 0 0 0 0 0 0 0 0 0 0 0
6 6 6 6 0 0 0 0 0 0 0 0 0 0 0 0 0 0 0 0 0 0 0 0 0 0 0 0 0 0 0 0 0 0 0 0 0 0 0 0 0 0 0
3 6 6 6 6 3 0 0 0 0 0 0 0 0 0 0 0 0 0 0 0 0 0 0 0 0 0 0 0 0 0 0 0 0 0 0 0 0 0 0 0 0 0
3 3 3 3 6 3 0 0 0 0 0 0 0 0 0 0 0 0 0 0 0 0 0 0 0 0 0 0 0 0 0 0 0 0 0 0 0 0 0 0 0 0 0
6 6 3 0 0 0 0 0 0 0 0 0 0 0 0 0 0 0 0 0 0 0 0 0 0 0 0 0 0 0 0 0 0 0 0 0 0 0 0 0 0 0 0
3 3 3 3 0 0 0 0 0 0 0 0 0 0 0 0 0 0 0 0 0 0 0 0 0 0 0 0 0 0 0 0 0 0 0 0 0 0 0 0 0 0 0

GEFSMA_con_cape1000_150.txt.gz
Probability
23 23 23 19 16 13 16 13 13 13 3 6 10 10 13 10 10 32 65 81 90 90 84 71 77 74 68 74 52 52 55 48 52 58 48 48 42 32 35 32 26 26 16
10 19 16 10 10 6 6 13 10 3 0 0 6 10 13 13 16 23 45 77 90 94 97 87 74 71 58 58 55 52 48 48 48 58 52 55 52 45 35 32 19 13 16
10 13 10 3 10 3 3 3 0 0 0 0 0 3 3 13 13 19 32 55 74 84 97 94 90 84 71 68 52 58 58 52 55 61 65 58 55 48 48 42 39 32 13
10 6 10 10 3 3 0 0 0 0 0 0 0 0 3 3 13 16 19 32 52 65 77 97 94 90 81 65 65 55 61 68 61 65 61 58 58 48 48 48 39 29 16
13 6 6 3 3 0 0 0 0 0 0 0 0 0 0 0 3 13 13 23 35 39 42 55 87 90 81 74 71 68 74 68 71 71 65 48 55 52 61 52 42 32 16
6 6 3 0 0 0 0 0 0 0 0 0 0 0 0 0 0 0 6 10 16 23 26 26 55 58 71 84 87 81 58 61 68 65 65 58 58 61 52 39 39 32 23
6 6 3 0 0 0 0 0 0 0 0 0 0 0 0 0 0 0 0 0 0 6 23 26 29 32 45 55 65 77 65 65 58 61 71 65 58 71 65 58 45 29 26
6 6 3 0 0 0 0 0 0 0 0 0 0 0 0 0 0 0 0 0 0 0 3 3 13 16 26 32 13 32 61 61 61 58 65 65 68 68 55 55 35 26 19
6 3 0 0 0 0 0 0 0 0 0 0 0 0 0 0 0 0 0 0 0 0 0 0 3 10 6 10 19 6 32 52 52 52 58 58 58 48 39 42 39 29 23
6 0 0 0 0 0 0 0 0 0 0 0 0 0 0 0 0 0 0 0 0 0 0 0 3 3 6 6 0 0 3 19 39 45 61 61 52 39 29 29 29 29 26
3 0 0 0 0 0 0 0 0 0 0 0 0 0 0 0 0 0 0 0 0 0 0 0 0 0 0 3 3 0 0 0 10 16 45 58 48 39 35 35 32 26 26
0 0 0 0 0 0 0 0 0 0 0 0 0 0 0 0 0 0 0 0 0 0 0 0 0 0 0 0 0 0 0 0 0 0 3 13 23 39 32 29 16 13 16
0 0 0 0 0 0 0 0 0 0 0 0 0 0 0 0 0 0 0 0 0 0 0 0 0 0 0 0 0 0 3 0 0 0 0 3 3 3 10 13 19 16 13
0 0 0 0 0 0 0 0 0 0 0 0 0 0 0 0 0 0 0 0 0 0 0 0 0 0 0 0 0 0 0 0 0 0 0 0 0 3 3 3 3 3 3
0 0 0 0 0 0 0 0 0 0 0 0 0 0 0 0 0 0 0 0 0 0 0 0 0 0 0 0 0 0 0 0 0 0 0 0 0 0 0 0 0 0 0
0 0 0 0 0 0 0 0 0 0 0 0 0 0 0 0 0 0 0 0 0 0 0 0 0 0 0 0 0 0 0 0 0 0 0 0 0 0 0 0 0 0 0
0 0 0 0 0 0 0 0 0 0 0 0 0 0 0 0 0 0 0 0 0 0 0 0 0 0 0 0 0 0 0 0 0 0 0 0 0 0 0 0 0 0 0
0 0 0 0 0 0 0 0 0 0 0 0 0 0 0 0 0 0 0 0 0 0 0 0 0 0 0 0 0 0 0 0 0 0 0 0 0 0 0 0 0 0 0
0 0 0 0 0 0 0 0 0 0 0 0 0 0 0 0 0 0 0 0 0 0 0 0 0 0 0 0 0 0 0 0 0 0 0 0 0 0 0 0 0 0 0
0 0 0 0 0 0 0 0 0 0 0 0 0 0 0 0 0 0 0 0 0 0 0 0 0 0 0 0 0 0 0 0 0 0 0 0 0 0 0 0 0 0 0
0 0 0 0 0 0 0 0 0 0 0 0 0 0 0 0 0 0 0 0 0 0 0 0 0 0 0 0 0 0 0 0 0 0 0 0 0 0 0 0 0 0 0
6 6 6 6 6 3 0 0 0 0 0 0 0 0 0 0 0 0 0 0 0 0 0 0 0 0 0 0 0 0 0 0 0 0 0 0 0 0 0 0 0 0 0
3 3 3 3 3 6 0 0 0 0 0 0 0 0 0 0 0 0 0 0 0 0 0 0 0 0 0 0 0 0 0 0 0 0 0 0 0 0 0 0 0 0 0
3 3 3 3 3 3 0 0 0 0 0 0 0 0 0 0 0 0 0 0 0 0 0 0 0 0 0 0 0 0 0 0 0 0 0 0 0 0 0 0 0 0 0
0 0 0 0 0 0 0 0 0 0 0 0 0 0 0 0 0 0 0 0 0 0 0 0 0 0 0 0 0 0 0 0 0 0 0 0 0 0 0 0 0 0 0
0 0 0 0 0 0 0 0 0 0 0 0 0 0 0 0 0 0 0 0 0 0 0 0 0 0 0 0 0 0 0 0 0 0 0 0 0 0 0 0 0 0 0

GEFSMA_con_cape1000_156.txt.gz
Probability
84 77 81 77 55 61 65 61 52 65 58 61 52 45 39 35 16 16 74 81 84 77 71 61 55 35 52 58 52 42 45 39 35 39 35 39 32 32 26 19 19 13 13
74 74 71 68 52 45 48 55 52 61 55 61 55 48 42 23 32 29 39 71 77 81 71 58 52 45 45 52 48 45 39 45 42 42 39 45 32 26 23 26 19 16 16
71 71 55 55 48 55 61 48 52 45 48 45 45 39 35 39 45 32 32 52 61 71 74 61 58 58 52 42 42 52 48 52 52 45 52 52 55 39 32 35 29 23 23
68 68 58 26 45 45 45 52 32 39 39 39 42 42 39 58 42 42 29 32 45 42 61 74 74 74 55 48 52 52 58 58 65 55 55 48 48 52 45 42 39 29 26
61 58 48 48 42 35 45 42 39 35 35 42 32 48 29 32 42 16 23 23 32 32 48 77 84 77 68 52 48 52 58 68 68 61 42 42 45 39 48 39 35 29 26
55 52 52 55 45 39 52 52 55 52 42 42 6 19 26 19 26 26 23 26 32 29 32 35 55 65 61 68 68 58 52 58 65 61 58 58 58 52 55 52 42 32 23
52 65 29 48 52 45 45 35 39 32 35 29 35 29 23 16 19 39 35 26 16 32 35 42 48 58 55 52 45 65 58 55 55 58 68 55 55 58 52 45 42 39 23
61 45 52 39 45 65 55 48 52 45 26 29 23 16 19 29 39 6 32 42 29 35 29 32 52 65 45 58 29 48 61 61 55 52 55 58 52 55 45 45 39 32 29
58 55 52 42 48 35 39 52 52 45 39 29 26 10 10 16 16 10 23 26 42 45 26 26 35 48 52 58 48 23 65 68 55 45 52 61 55 32 39 45 42 32 26
58 52 48 55 68 48 58 45 35 45 48 39 35 42 23 16 19 26 16 6 26 35 26 16 19 42 52 55 61 13 26 39 45 39 48 52 45 26 29 29 29 29 26
58 45 52 58 65 52 45 52 55 48 42 39 35 29 26 32 16 26 13 13 13 16 19 26 29 29 35 48 61 35 10 6 19 39 58 55 48 42 23 23 26 26 29
74 52 52 55 58 42 55 61 58 55 55 48 52 32 35 29 23 23 16 26 16 16 13 16 16 29 26 26 23 3 6 3 0 0 6 26 32 35 26 26 23 23 19
55 65 48 61 58 55 58 58 68 58 52 58 55 39 32 29 16 19 23 19 19 6 19 13 19 16 13 23 32 6 6 0 0 0 0 0 3 13 13 19 23 19 16
42 48 65 58 52 48 39 65 48 45 61 61 42 55 45 19 13 13 13 19 16 13 16 16 16 19 19 19 3 0 10 0 0 0 0 0 0 0 3 3 13 13 13
45 45 52 61 55 55 52 52 45 48 58 48 42 48 42 32 23 26 16 19 16 23 16 19 13 16 19 35 10 16 13 6 0 0 0 0 0 0 0 0 0 3 3
45 48 35 35 45 52 55 55 52 48 55 55 55 39 45 29 35 26 26 23 19 19 29 10 16 6 26 0 0 10 13 6 0 0 0 0 0 0 0 0 0 0 0
42 45 52 42 48 42 48 48 32 26 23 35 29 29 42 39 32 29 23 26 19 29 23 6 23 13 16 13 6 19 13 13 6 0 0 0 0 0 0 0 0 0 0
45 39 39 35 35 26 32 29 29 16 16 13 16 16 13 19 29 29 35 23 16 23 16 13 16 6 6 6 6 13 6 0 0 0 0 0 0 0 0 0 0 0 0
35 32 35 32 23 23 23 29 26 19 23 19 16 16 13 16 23 19 23 23 13 10 16 13 13 16 6 3 3 3 0 6 0 0 0 0 0 0 0 0 0 0 0
32 35 32 32 26 29 26 26 23 26 29 26 23 26 19 16 23 16 16 26 19 23 19 13 13 6 6 6 10 3 0 3 0 0 0 0 0 0 0 0 0 0 0
29 29 29 26 19 13 13 13 19 19 29 26 26 26 23 6 6 6 3 19 16 6 3 3 3 6 6 6 0 0 0 0 0 0 3 0 0 0 0 0 0 0 0
26 26 26 23 13 13 3 0 3 16 26 26 26 16 13 6 3 0 0 0 0 0 0 0 0 3 3 3 0 0 0 3 3 0 0 3 0 0 0 0 0 0 0
26 35 29 23 19 10 3 0 0 6 19 13 13 16 10 3 3 3 0 0 0 0 0 0 0 3 6 6 6 3 3 3 0 0 6 3 0 0 0 0 0 0 0
29 23 19 13 13 3 0 0 0 0 3 6 6 6 6 6 3 6 6 3 3 0 0 0 0 3 3 6 10 6 0 0 3 3 0 0 3 0 0 0 0 0 0
26 26 16 10 6 3 0 0 0 3 3 3 3 3 3 6 6 0 3 6 6 6 0 0 0 0 0 0 3 3 0 0 0 3 0 0 0 0 0 0 0 0 0
23 13 6 3 3 3 3 0 0 3 3 3 3 3 0 0 0 0 0 3 3 6 6 0 0 0 0 0 0 3 3 0 0 0 0 0 0 0 0 0 0 0 0

GEFSMA_con_cape1000_162.txt.gz
Probability
87 87 84 87 81 90 94 90 87 90 84 84 65 52 52 65 42 32 45 87 84 71 58 48 55 58 39 45 48 39 35 42 48 39 35 35 19 19 23 16 16 13 10
94 90 84 87 90 87 87 90 87 90 84 84 81 77 65 42 61 61 42 74 87 74 68 45 42 48 48 45 39 32 32 42 45 48 42 32 39 23 23 19 16 19 13
87 90 94 94 94 87 87 87 81 84 81 77 77 77 77 68 61 68 45 48 52 74 77 65 55 48 55 52 45 39 35 35 52 42 45 35 42 35 35 35 29 26 29
87 94 94 94 90 87 87 87 84 77 81 77 81 77 81 81 71 68 65 71 61 32 74 77 74 65 58 52 48 52 52 55 61 48 45 52 48 39 42 35 32 32 29
84 90 94 90 81 84 84 61 87 74 84 81 68 68 77 81 77 48 58 58 74 61 42 55 87 84 61 52 45 58 58 52 61 61 45 42 32 52 48 48 42 32 35
84 90 87 94 74 84 84 81 71 77 81 77 32 35 65 74 77 71 58 55 68 61 48 45 42 52 81 77 74 65 68 61 65 58 48 52 48 52 55 45 35 32 32
84 87 90 90 90 94 87 74 65 61 77 77 52 45 71 58 58 74 81 68 39 42 52 55 42 45 29 68 68 74 71 65 65 65 68 71 61 58 55 48 32 32 29
81 52 90 90 90 90 87 71 71 77 74 68 68 39 32 42 71 29 68 71 45 45 45 39 74 81 52 29 6 65 71 61 58 61 68 65 68 61 52 39 35 29 29
87 81 87 90 87 87 87 81 77 71 65 77 71 55 16 16 35 61 58 45 68 71 52 45 61 65 58 55 39 16 74 74 71 52 65 61 55 42 35 32 29 23 29
84 84 74 84 87 84 84 81 71 81 81 61 77 58 65 48 35 26 39 39 52 61 48 29 42 48 58 55 52 32 32 61 71 61 61 55 48 42 35 29 26 26 26
87 87 87 81 84 84 81 74 77 81 84 74 71 68 61 65 48 32 13 16 35 48 52 58 48 52 52 55 48 35 23 19 39 52 55 55 48 45 32 23 26 26 26
84 84 90 87 87 90 87 87 77 71 77 71 68 58 58 48 42 32 16 16 19 26 39 45 48 45 55 48 35 29 16 3 3 6 19 35 45 42 39 29 23 19 19
84 90 84 84 87 84 87 84 81 77 68 68 68 71 61 52 48 45 32 13 19 23 26 45 48 55 35 32 35 23 16 3 0 0 3 3 10 23 19 23 26 23 23
74 81 90 84 84 74 68 84 74 74 68 68 48 65 65 65 61 61 42 19 10 13 23 23 39 29 23 29 26 0 10 0 0 0 0 0 0 0 3 6 16 13 10
68 71 65 71 71 68 74 74 74 68 65 61 55 58 61 52 58 61 55 58 16 13 13 16 16 19 16 13 0 3 10 3 0 0 0 0 0 0 0 0 0 0 0
71 74 68 65 68 71 61 71 65 61 61 68 68 58 58 52 39 48 42 42 32 19 16 13 10 23 16 10 3 6 10 0 0 0 0 0 0 0 0 0 0 0 0
65 68 65 52 58 55 52 52 55 48 48 42 45 35 39 39 39 32 26 29 26 23 13 13 13 19 19 16 3 16 16 6 3 0 0 0 0 0 0 0 0 0 0
61 58 55 48 52 45 42 42 35 39 23 23 32 29 23 19 29 29 32 26 26 26 13 10 13 10 19 13 16 13 6 0 0 0 0 0 0 0 0 0 0 0 0
65 55 55 52 42 42 39 35 29 32 32 26 23 13 23 23 23 26 26 23 23 6 19 10 6 13 6 6 6 6 3 6 6 0 0 0 0 0 0 0 0 0 0
52 45 45 42 39 35 29 19 23 23 26 29 26 19 19 19 16 16 13 19 13 13 13 10 10 10 10 6 6 6 6 6 0 0 0 0 0 0 0 0 0 0 0
35 39 39 32 32 26 16 13 16 19 26 26 19 16 16 16 10 6 6 13 13 10 6 6 6 3 6 6 6 6 0 0 6 0 0 0 0 0 0 0 0 0 0
35 32 32 29 26 13 10 3 6 16 23 23 19 13 13 10 6 3 3 3 3 6 6 6 6 3 3 6 6 3 3 0 0 3 0 0 0 0 0 0 0 0 0
32 32 23 23 19 10 3 0 0 19 23 19 16 13 6 10 6 6 3 3 0 0 0 3 3 3 3 3 6 0 3 3 3 3 0 0 0 0 0 0 0 0 0
26 23 23 23 19 3 3 0 0 6 13 16 10 6 10 6 3 3 3 3 0 3 3 0 0 3 0 3 3 3 3 3 3 0 0 0 0 0 0 0 0 0 0
26 26 19 19 16 6 3 0 0 0 10 10 6 6 6 3 3 3 3 3 3 3 0 0 0 0 0 0 0 0 3 0 0 0 0 0 0 0 0 0 0 0 0
19 19 19 19 19 13 3 0 0 3 6 13 6 6 3 3 3 3 3 3 3 3 3 0 0 0 0 0 0 0 0 0 0 0 0 0 0 0 0 0 0 0 0

GEFSMA_con_cape1000_168.txt.gz
Probability
13 13 19 19 16 13 16 13 3 0 0 6 3 6 3 3 10 6 16 81 90 87 77 65 71 48 39 42 52 52 48 42 45 52 52 45 35 32 32 23 26 23 16
13 10 10 6 16 16 6 13 6 6 6 0 3 3 3 3 10 10 6 55 90 97 90 74 58 52 52 42 35 39 39 45 45 45 42 39 35 32 29 29 23 29 23
6 6 6 6 6 6 6 3 6 3 3 0 0 0 0 3 3 6 6 6 23 87 94 84 71 68 61 48 45 39 42 45 52 52 45 42 42 39 32 35 29 26 23
13 6 6 3 3 3 3 0 3 3 0 0 0 0 0 0 0 0 3 3 10 16 61 84 81 81 65 61 58 52 48 48 55 48 48 42 39 39 35 39 29 29 16
10 6 0 3 0 3 3 0 0 0 0 0 0 0 0 0 0 0 3 0 0 0 6 39 81 84 74 65 61 65 58 58 65 52 48 45 45 35 32 29 26 23 16
13 10 6 0 3 3 3 0 0 0 0 0 0 0 0 0 0 0 0 0 0 0 0 3 26 52 71 81 84 74 68 61 65 61 58 55 48 45 42 29 29 29 26
10 10 13 0 3 3 3 0 0 0 0 0 0 0 0 0 0 0 0 0 0 3 3 0 0 3 13 58 71 81 71 65 68 65 58 48 52 55 42 39 29 26 23
10 10 10 0 3 0 0 0 0 0 0 0 0 0 0 0 0 0 0 0 0 0 0 0 0 0 0 0 13 55 81 74 71 61 58 55 45 42 29 29 29 19 19
6 10 0 3 3 0 0 0 0 0 0 0 0 0 0 0 0 0 0 0 0 0 0 0 0 0 0 0 0 6 61 77 74 68 68 61 55 32 23 19 19 19 16
6 10 0 6 3 0 0 0 0 0 0 0 0 0 0 0 0 0 0 0 0 0 0 0 0 0 0 0 0 0 6 39 68 65 65 61 58 32 23 23 16 19 13
6 6 3 3 0 0 0 0 0 0 0 0 0 0 0 0 0 0 0 0 0 0 0 0 0 0 0 0 0 0 3 10 19 35 48 52 52 52 35 23 19 23 16
0 10 10 0 0 0 0 0 0 0 0 0 0 0 0 0 0 0 0 0 0 0 0 0 0 0 0 0 0 3 3 3 3 3 13 19 42 45 45 26 23 23 23
3 6 6 0 0 0 0 0 0 0 0 0 0 0 0 0 0 0 0 0 0 0 0 0 0 0 0 0 0 3 10 0 0 0 0 0 10 26 23 26 26 19 23
6 3 3 3 0 0 0 0 0 0 0 0 3 0 0 0 0 0 0 0 0 0 0 0 0 0 0 0 0 0 0 0 0 0 0 0 0 0 0 3 6 16 13
0 0 3 3 0 0 0 3 3 3 3 3 0 0 0 0 0 0 0 0 0 0 0 0 0 0 0 0 0 0 0 0 0 0 0 0 0 0 0 0 0 0 0
6 3 3 0 0 0 0 0 3 3 3 3 3 0 0 0 0 0 0 0 0 0 0 0 0 0 0 0 0 0 0 0 0 0 0 0 0 0 0 0 0 0 0
6 6 3 0 0 0 0 0 0 3 3 3 0 0 0 0 0 0 0 0 0 0 0 0 0 0 0 0 0 0 0 0 0 0 0 0 0 0 0 0 0 0 0
13 6 3 0 0 3 0 0 0 0 0 0 0 0 0 0 0 0 0 0 0 0 0 0 0 0 0 0 0 0 0 0 0 0 0 0 0 0 0 0 0 0 0
16 10 10 6 3 3 3 0 0 0 0 0 0 0 0 3 3 0 0 0 0 0 0 0 0 0 0 0 0 0 0 0 0 0 0 0 0 0 0 0 0 0 0
13 10 6 3 3 3 3 3 3 3 3 0 0 0 0 0 0 3 0 0 0 0 0 0 0 0 0 0 0 0 0 0 0 0 0 0 0 0 0 0 0 0 0
13 13 6 6 6 3 3 3 3 3 0 0 0 0 0 0 0 0 0 0 0 0 0 0 0 0 0 0 0 0 0 0 0 0 0 0 0 0 0 0 0 0 0
10 6 10 6 3 6 0 0 0 0 0 0 0 0 0 0 0 0 0 0 0 0 0 0 0 0 0 0 0 0 0 0 0 0 0 0 0 0 0 0 0 0 0
10 6 6 6 6 3 0 0 0 0 0 0 0 0 3 3 0 0 0 0 0 0 0 0 0 0 0 0 0 0 0 0 0 0 0 0 0 0 0 0 0 0 0
13 6 6 10 6 3 0 0 0 0 0 0 0 0 0 0 0 0 0 0 0 0 0 0 0 0 0 0 0 0 0 0 0 0 0 0 0 0 0 0 0 0 0
10 10 10 10 6 3 0 0 0 0 0 0 0 0 0 0 0 0 0 0 0 0 0 0 0 0 0 0 0 0 0 0 0 0 0 0 0 0 0 0 0 0 0
10 10 10 10 6 3 3 0 0 0 0 0 0 0 0 0 0 0 0 0 0 0 0 0 0 0 0 0 0 0 0 0 0 0 0 0 0 0 0 0 0 0 0

GEFSMA_con_cape1000_174.txt.gz
Probability
13 6 10 10 10 6 6 3 3 3 0 3 6 10 10 13 10 16 35 58 74 84 68 65 55 52 45 45 39 45 42 39 45 48 35 32 23 23 19 23 16 13 10
10 6 3 6 0 3 3 0 0 3 6 6 10 3 10 6 10 16 16 45 68 81 77 58 45 42 39 35 39 42 45 45 45 45 35 35 29 26 19 16 16 13 16
6 6 0 0 0 0 3 0 0 3 6 0 0 3 3 6 3 10 10 19 48 65 71 65 61 52 45 42 35 35 45 48 42 42 39 32 29 29 32 16 23 23 26
6 0 0 0 0 0 3 0 0 0 3 0 0 0 0 0 3 6 6 13 16 29 52 74 77 65 58 52 42 39 42 42 48 45 39 39 32 26 32 26 19 26 23
10 0 0 0 0 0 3 3 0 0 0 0 0 0 0 0 0 0 6 6 6 10 16 26 74 71 61 55 58 55 55 52 48 45 48 45 39 26 26 29 26 23 19
3 0 0 0 0 0 3 0 0 0 0 0 0 0 0 0 0 0 3 3 3 6 6 6 23 55 68 74 68 65 61 65 68 52 39 35 35 35 29 26 26 23 16
3 0 0 0 0 0 3 0 0 0 0 0 0 0 0 0 0 0 0 3 3 3 0 0 6 13 16 42 55 55 58 61 65 58 52 48 42 45 35 26 23 16 16
0 3 0 0 0 0 0 0 0 0 0 0 0 0 0 0 0 0 0 0 3 0 0 0 3 3 3 16 10 23 48 48 61 68 68 58 45 39 39 32 19 13 10
0 0 3 0 0 0 0 0 0 0 0 0 0 0 0 0 0 0 0 0 0 0 0 3 3 3 3 6 3 0 16 45 52 48 55 55 45 35 29 26 26 16 10
0 0 0 0 0 0 0 0 0 0 0 0 0 0 0 0 0 0 0 0 0 0 0 0 0 3 3 3 3 0 0 19 32 42 45 52 48 35 29 23 23 19 13
0 0 3 0 0 0 0 0 0 0 0 0 0 0 0 0 0 0 0 0 0 0 0 0 0 0 0 3 3 3 0 6 10 19 39 39 42 42 32 32 23 23 19
0 0 3 0 0 0 0 0 0 0 0 0 0 0 0 0 0 0 0 0 0 0 0 0 0 0 0 0 0 0 0 0 0 0 6 13 19 29 35 29 23 19 19
0 0 0 0 0 0 0 0 0 0 0 0 0 0 0 0 0 0 0 0 0 0 0 0 0 0 0 0 0 0 6 0 0 0 0 0 0 6 13 19 19 23 16
0 0 0 0 0 0 0 0 0 0 0 0 0 0 0 0 0 0 0 0 0 0 0 0 0 0 0 0 0 0 0 0 0 0 0 0 0 0 0 3 3 6 6
0 0 0 0 0 0 3 3 0 0 0 0 0 0 0 0 0 0 0 0 0 0 0 0 0 0 0 0 0 0 0 0 0 0 0 0 0 0 0 0 0 0 0
3 0 0 0 0 0 0 0 3 0 0 0 0 0 0 0 0 0 0 0 0 0 0 0 0 0 0 0 0 0 0 0 0 0 0 0 0 0 0 0 0 0 0
3 3 3 0 0 0 0 0 0 0 0 0 0 0 3 0 0 0 0 0 0 0 0 0 0 0 0 0 0 0 0 0 0 0 0 0 0 0 0 0 0 0 0
3 3 3 3 3 0 0 0 0 0 0 0 0 0 0 0 0 0 0 0 0 0 0 0 0 0 0 0 0 0 0 0 0 0 0 0 0 0 0 0 0 0 0
0 0 3 3 3 3 3 3 3 3 3 0 0 0 3 0 0 0 0 0 0 0 0 0 0 0 0 0 0 0 0 0 0 0 0 0 0 0 0 0 0 0 0
0 3 3 3 3 3 3 3 3 3 3 3 3 3 3 3 0 0 0 0 0 0 0 0 0 0 0 0 0 0 0 0 0 0 0 0 0 0 0 0 0 0 0
0 3 3 3 3 3 3 3 3 3 3 3 3 3 0 0 0 0 0 0 0 0 0 0 0 0 0 0 0 0 0 0 0 0 0 0 0 0 0 0 0 0 0
3 3 3 3 3 3 3 3 3 3 3 3 3 0 0 0 0 0 0 0 0 0 0 0 0 0 0 0 0 0 0 0 0 0 0 0 0 0 0 0 0 0 0
3 6 3 3 3 3 3 3 0 3 3 3 0 0 0 0 0 0 0 0 0 0 0 0 0 0 0 0 0 0 0 0 0 0 0 0 0 0 0 0 0 0 0
6 6 3 3 3 3 3 3 0 0 3 0 0 0 0 0 0 0 0 0 0 0 0 0 0 0 0 0 0 0 0 0 0 0 0 0 0 0 0 0 0 0 0
6 6 6 6 6 6 3 3 0 0 0 0 0 0 0 0 0 0 0 0 0 0 0 0 0 0 0 0 0 0 0 0 0 0 0 0 0 0 0 0 0 0 0
6 6 3 6 6 6 3 3 0 0 0 0 0 0 0 0 0 0 0 0 0 0 0 0 0 0 0 0 0 0 0 0 0 0 0 0 0 0 0 0 0 0 0

GEFSMA_con_cape1000_180.txt.gz
Probability
45 48 65 61 32 42 45 45 45 45 32 39 29 26 29 32 23 6 45 52 58 71 65 52 58 45 45 42 45 55 39 29 32 29 26 26 29 26 26 23 23 19 16
48 52 58 61 35 52 42 45 29 48 32 29 26 32 35 23 26 26 29 39 52 65 61 68 58 52 42 42 39 48 39 39 35 35 29 23 19 23 26 29 23 19 23
58 48 52 48 42 48 55 55 29 39 39 26 23 16 26 35 23 23 26 35 35 45 65 65 58 55 55 45 39 39 45 45 42 39 32 35 29 23 26 29 26 23 19
65 65 55 45 52 52 48 52 42 42 29 32 26 26 29 42 26 23 19 23 39 29 42 55 55 55 52 52 42 42 45 52 45 42 42 35 32 26 23 23 23 26 26
61 61 55 71 55 48 42 32 35 42 48 48 26 42 26 29 35 23 16 16 29 35 35 52 55 58 42 45 55 45 52 48 52 45 35 29 26 29 23 19 23 23 16
55 58 52 55 45 52 48 45 65 61 61 58 6 13 23 19 23 23 16 13 29 26 23 23 55 58 55 58 55 55 55 58 52 48 42 42 35 35 26 19 19 16 16
58 81 39 58 58 52 58 39 48 42 39 48 35 23 19 13 16 42 32 23 10 19 26 35 48 58 58 48 55 61 65 65 58 55 52 45 42 45 29 29 23 19 19
61 45 77 52 52 65 61 61 77 68 32 29 42 32 23 26 32 10 29 35 23 23 29 26 48 58 65 68 42 55 65 61 61 52 55 55 48 45 32 29 29 19 19
65 65 61 61 74 61 71 77 84 65 61 48 23 29 23 23 32 13 19 29 35 42 32 29 39 55 61 61 61 29 52 52 55 52 58 58 48 39 32 32 29 26 23
65 58 61 68 71 61 74 65 42 68 65 58 52 52 32 29 26 29 19 6 19 29 32 23 23 35 52 55 58 26 19 26 29 32 48 48 42 39 26 26 32 29 26
71 68 61 68 74 71 71 68 68 68 65 65 65 42 45 61 29 35 32 35 19 23 29 32 29 23 29 42 65 29 16 10 10 19 26 26 26 29 35 32 39 29 29
68 68 74 77 71 65 71 74 68 61 65 65 65 55 58 42 39 39 32 39 32 23 16 26 26 29 29 26 16 10 16 3 3 3 10 13 16 19 19 19 16 23 26
58 68 58 71 74 74 68 71 71 71 61 65 55 55 52 45 42 35 35 29 23 23 32 13 23 29 19 29 29 6 3 0 0 0 0 0 3 6 13 13 13 13 16
48 58 65 68 68 68 58 68 61 58 55 61 42 48 52 35 35 35 29 29 26 26 26 10 26 23 23 16 13 0 13 0 0 0 0 0 0 0 0 0 6 10 10
52 55 58 61 65 58 65 61 61 58 58 52 42 42 35 32 35 23 26 32 32 26 19 13 13 19 26 23 13 13 16 3 0 0 0 0 0 0 0 0 0 0 0
55 52 52 58 52 52 55 61 52 52 52 48 52 48 52 26 26 29 32 29 29 26 13 16 19 13 16 6 6 13 13 0 0 0 0 0 0 0 0 0 0 0 0
58 55 55 55 52 42 39 39 35 42 39 35 35 32 35 45 39 29 23 19 29 29 16 6 16 16 23 13 13 10 10 13 10 0 0 0 0 0 0 0 0 0 0
55 52 45 42 39 32 35 32 26 29 32 32 26 29 26 23 35 23 26 23 26 29 16 19 19 13 16 6 10 10 6 0 6 0 0 0 0 0 0 0 0 0 0
48 39 39 35 35 29 35 29 29 32 32 32 26 23 19 23 35 26 23 23 26 6 13 6 6 13 6 6 6 6 0 3 0 0 0 0 0 0 0 0 0 0 0
35 35 35 35 26 26 23 23 29 29 26 26 26 23 19 19 26 19 16 19 19 16 13 13 13 16 6 3 3 0 0 0 0 0 0 0 0 0 0 0 0 0 0
26 32 32 29 23 26 19 26 26 23 29 29 26 16 13 10 6 6 3 13 13 13 10 10 6 10 0 3 0 0 0 0 3 0 0 0 0 0 0 0 0 0 0
26 26 26 23 23 16 3 3 6 19 23 19 19 19 13 13 3 0 0 0 0 3 3 6 6 10 13 3 6 0 0 0 0 0 0 0 0 0 3 0 0 0 0
23 26 23 19 13 10 3 3 0 6 13 16 19 16 10 3 3 10 3 0 0 0 0 3 10 6 6 3 6 0 3 0 3 0 0 0 0 0 0 0 0 0 0
19 19 16 10 10 6 3 3 0 6 13 10 10 10 10 10 6 10 10 10 10 6 0 0 3 3 6 10 6 3 3 3 3 3 3 3 0 0 0 0 0 0 0
13 13 10 6 6 3 0 0 0 6 10 10 10 10 10 10 6 3 3 10 6 6 0 0 0 0 0 0 0 0 3 3 3 3 3 3 3 0 0 0 0 0 0
13 10 3 3 3 3 3 0 0 3 10 13 13 10 6 3 3 0 3 6 6 6 3 0 0 0 0 0 0 0 0 0 0 0 3 3 3 3 3 3 3 3 0

GEFSMA_con_cape1000_186.txt.gz
Probability
90 90 94 97 71 84 81 87 77 77 77 68 58 58 58 48 42 35 42 74 74 74 68 68 61 45 42 48 29 29 26 26 29 29 26 26 26 26 26 26 26 23 16
94 100 90 94 90 87 90 87 84 84 90 77 74 65 48 48 58 45 35 61 71 77 71 61 58 55 55 48 45 45 39 29 29 32 29 23 23 26 26 26 26 26 23
94 97 94 90 90 87 87 84 81 84 81 74 74 68 65 65 52 52 42 39 42 68 74 71 61 71 61 58 45 45 52 42 39 32 35 29 23 23 29 26 29 29 23
77 97 90 94 87 87 94 90 87 87 84 87 87 84 81 81 65 68 48 52 42 35 48 81 81 74 65 55 58 52 48 58 58 48 48 39 32 29 19 29 26 26 19
81 90 87 94 90 84 90 71 77 87 84 87 81 77 81 81 81 55 61 45 48 52 45 45 87 84 68 58 65 52 55 55 58 58 48 42 39 39 29 26 23 26 19
81 90 90 81 81 84 87 90 84 90 90 87 42 52 77 74 84 84 52 48 58 45 39 42 48 42 84 84 77 68 61 61 61 61 58 55 45 45 45 23 19 19 19
84 87 77 94 84 84 84 81 84 87 90 87 81 74 71 68 71 74 68 55 45 48 48 55 42 32 26 52 68 71 71 58 61 61 58 55 55 58 45 39 23 16 16
87 65 84 87 87 77 81 81 84 84 77 71 84 74 58 48 74 29 61 65 52 52 52 39 48 61 48 32 6 42 61 61 58 55 55 58 52 48 42 32 23 19 16
81 81 81 81 81 77 81 81 81 71 71 84 74 71 45 32 52 61 55 48 58 61 58 52 52 61 52 52 29 13 42 61 61 58 61 61 48 39 39 32 29 19 16
81 84 84 81 81 74 81 74 71 77 74 68 71 71 68 65 55 42 48 32 42 58 55 26 23 45 52 39 32 26 26 29 52 48 52 48 45 32 23 23 23 26 23
81 77 81 84 77 77 77 74 74 77 74 61 68 65 65 68 45 45 23 29 39 39 48 52 42 39 35 35 26 19 16 13 13 26 32 35 35 32 19 19 16 16 16
84 81 84 81 81 81 84 77 74 74 74 71 68 61 58 55 52 42 32 35 26 42 35 39 23 29 26 23 23 10 10 6 6 6 6 16 26 26 16 19 13 16 16
84 84 81 74 74 77 74 71 74 68 65 61 61 65 68 58 58 55 32 26 32 39 39 29 26 26 16 19 16 6 6 0 0 0 0 3 6 10 10 10 10 13 13
71 74 84 84 74 71 65 68 65 68 68 65 55 58 61 58 55 45 42 39 26 16 26 29 19 23 19 23 16 0 3 0 0 0 0 0 0 0 0 0 3 6 6
58 55 61 71 74 65 65 71 71 65 68 68 58 55 61 55 48 55 52 45 23 6 10 16 19 19 23 23 6 3 16 3 0 0 0 0 0 0 0 0 0 0 0
65 58 52 58 61 68 58 61 61 61 48 52 48 55 55 48 45 48 45 42 35 26 10 10 13 29 23 10 3 10 13 0 0 0 0 0 0 0 0 0 0 0 0
61 58 52 55 61 55 58 65 55 48 39 35 39 39 39 42 35 26 35 39 39 23 13 10 16 23 19 16 6 6 6 6 0 0 0 0 0 0 0 0 0 0 0
55 55 58 52 52 48 55 45 35 35 32 35 35 35 35 29 35 32 32 29 26 23 13 6 10 13 16 16 16 13 6 6 6 0 0 0 0 0 0 0 0 0 0
52 52 55 48 42 39 35 35 35 32 32 32 35 35 35 32 32 29 29 26 23 10 13 6 6 10 13 10 6 6 3 6 3 0 0 0 0 0 0 0 0 0 0
48 48 52 45 35 32 32 32 29 29 29 29 26 32 29 32 29 32 29 29 23 13 10 10 6 10 10 6 6 6 3 3 3 0 0 0 0 0 0 0 0 0 0
42 48 42 32 32 29 23 23 26 26 26 26 26 19 19 19 13 10 10 16 13 13 13 6 6 3 3 6 6 3 3 3 3 3 0 0 0 0 0 0 0 0 0
48 39 29 26 23 10 3 0 6 16 23 23 23 19 19 10 6 3 3 3 3 10 13 10 6 3 3 3 0 0 0 0 0 0 0 0 0 0 0 0 0 0 0
48 32 29 26 19 6 3 0 0 10 19 23 19 19 10 6 6 13 3 3 3 3 3 3 6 6 3 3 3 0 0 0 0 0 0 0 0 0 3 0 0 0 0
35 35 26 23 16 6 3 0 0 3 13 6 6 10 3 6 6 6 10 10 10 6 3 3 3 3 6 3 3 0 0 0 0 0 0 0 0 0 0 0 0 0 0
35 32 19 13 13 6 3 0 0 6 10 3 3 3 3 3 3 3 3 3 10 6 3 3 3 3 0 0 0 3 0 0 0 0 0 0 0 0 0 0 0 0 0
35 29 16 16 13 10 3 0 0 3 6 3 3 3 3 3 3 0 0 3 3 3 3 6 0 0 0 0 0 0 0 0 0 0 0 0 0 0 0 0 0 0 0

GEFSMA_con_cape1000_192.txt.gz
Probability
13 6 10 3 6 6 10 10 6 6 6 6 3 3 0 0 0 0 6 65 71 84 84 68 65 65 58 52 45 39 35 29 35 32 29 29 29 26 16 23 23 16 16
6 6 6 0 0 3 6 10 6 3 0 0 3 0 0 0 0 0 0 32 71 81 84 68 58 58 52 52 45 35 35 32 32 32 32 26 26 26 19 16 16 16 16
0 3 0 0 0 3 0 0 3 3 0 0 3 3 0 0 0 0 0 10 29 74 77 71 71 65 58 58 52 45 45 39 39 35 39 29 19 19 26 26 23 19 16
0 0 3 3 3 0 3 0 0 0 0 0 0 3 3 0 0 0 0 0 3 10 48 74 71 74 68 61 58 48 45 48 61 39 39 35 29 26 23 19 23 19 13
6 0 3 3 6 3 0 3 0 0 0 0 0 0 0 0 0 0 0 0 0 0 0 26 81 84 65 65 65 58 65 58 55 55 35 29 29 29 26 19 19 16 6
13 3 0 3 10 0 0 3 3 0 0 0 0 0 0 0 0 0 0 0 0 0 0 0 13 45 77 74 71 68 65 68 65 52 45 42 35 35 29 19 19 19 13
10 6 6 10 10 6 3 3 3 3 3 3 3 0 0 0 0 0 0 0 0 0 0 0 0 0 10 61 58 61 58 58 58 58 55 45 42 39 32 26 16 16 13
3 13 3 3 3 3 6 6 3 3 3 0 0 0 0 0 0 0 0 0 0 0 0 0 0 0 0 0 10 45 55 55 55 55 48 48 35 42 35 29 23 13 10
10 10 10 6 3 3 3 3 3 3 3 3 0 3 0 0 0 0 0 0 0 0 0 0 0 0 0 0 0 3 45 48 48 48 52 48 42 32 26 23 13 10 10
13 6 10 10 3 3 6 3 3 3 3 3 3 0 0 0 0 0 0 0 0 0 0 0 0 0 0 3 0 0 3 32 52 52 45 42 39 26 19 16 16 13 13
16 16 10 10 3 6 6 3 3 3 3 3 3 0 0 0 0 0 0 0 0 0 0 0 0 0 0 0 0 0 6 6 10 19 32 32 29 29 19 16 16 19 13
13 19 19 13 10 10 10 10 3 0 0 0 0 0 0 0 0 0 0 0 0 0 0 0 0 0 0 0 0 0 3 0 0 6 6 13 19 19 19 23 16 16 13
10 13 23 10 10 10 10 6 6 10 6 3 0 0 0 0 0 0 0 0 0 0 0 0 0 0 0 0 0 3 3 0 0 0 0 0 3 3 10 13 10 10 10
10 13 10 13 10 10 13 6 10 10 10 6 3 0 0 0 0 0 0 0 0 0 0 0 0 0 0 3 0 0 0 0 0 0 0 0 0 3 3 3 3 3 3
19 23 19 16 13 10 10 6 6 10 10 6 3 3 0 0 0 0 0 0 0 0 0 0 0 0 0 0 0 0 0 0 0 0 0 0 0 0 0 0 0 3 0
23 26 23 16 16 16 10 10 6 6 6 3 3 3 3 0 0 0 0 0 0 0 3 0 0 0 0 3 0 0 0 0 0 0 0 0 0 0 0 0 0 0 0
23 23 19 16 13 10 13 6 6 6 3 3 3 3 3 3 3 3 3 3 3 3 3 3 0 0 3 0 0 0 0 0 0 0 0 0 0 0 0 0 0 0 0
23 19 16 16 13 13 10 3 3 6 3 3 3 3 3 3 3 3 3 3 3 3 3 3 3 3 3 0 0 0 0 0 0 0 0 0 0 0 0 0 0 0 0
19 16 16 13 13 3 3 0 0 0 0 0 0 3 3 3 3 3 3 3 3 3 3 3 3 3 3 0 0 0 0 0 0 0 0 0 0 0 0 0 0 0 0
16 19 16 16 13 10 6 0 0 0 0 0 0 0 0 0 0 0 0 0 0 3 3 3 3 3 3 0 0 0 0 0 0 0 0 0 0 0 0 0 0 0 0
16 13 13 6 6 3 3 3 0 0 0 0 0 0 0 0 0 0 0 0 0 0 0 3 3 3 3 0 0 0 0 0 0 0 0 0 0 0 0 0 0 0 0
16 16 16 10 10 6 6 3 0 0 0 0 0 0 0 0 0 0 0 0 0 0 0 0 0 0 3 3 0 0 0 0 0 0 0 0 0 0 0 0 0 0 0
13 16 13 10 6 6 0 0 0 0 0 0 0 0 3 3 0 0 0 0 0 0 0 0 0 0 0 0 0 0 0 0 0 0 0 0 0 0 0 0 0 0 0
13 13 13 6 6 6 6 0 0 0 0 0 0 0 0 0 3 0 0 0 0 0 0 0 0 0 0 0 0 0 0 0 0 0 0 0 0 0 0 0 0 0 0
16 13 13 6 6 6 6 0 0 0 0 0 0 0 0 0 0 0 0 0 0 0 0 0 0 0 0 0 0 0 0 0 0 0 0 0 0 0 0 0 0 0 0
16 16 13 10 6 6 3 3 0 3 3 3 3 0 0 0 0 0 0 0 0 0 0 0 0 0 0 0 0 0 0 0 0 0 0 0 0 0 0 0 0 0 0

GEFSMA_con_cape1000_198.txt.gz
Probability
6 3 3 3 3 3 3 3 3 3 3 3 3 10 10 6 0 3 13 32 65 74 58 61 55 61 52 48 45 39 29 26 23 26 26 26 26 29 19 23 23 23 23
3 6 3 0 0 0 0 0 6 3 0 0 3 6 3 3 3 0 3 13 55 71 61 61 68 61 55 48 45 45 35 29 26 29 23 23 26 29 26 23 19 19 19
0 0 0 0 0 0 0 0 0 0 0 0 0 0 0 0 0 0 3 6 19 52 68 65 74 68 61 55 48 48 42 42 35 35 26 26 29 32 35 29 26 19 13
0 0 0 0 0 0 0 0 0 0 0 0 0 0 0 3 3 0 0 0 6 10 42 68 68 68 52 55 52 45 39 42 45 35 32 32 23 23 19 19 23 26 10
0 0 0 0 0 0 0 0 0 0 0 0 0 0 0 0 0 0 0 0 0 3 3 23 68 68 58 55 52 55 45 45 42 39 32 29 29 23 26 16 16 19 10
3 0 0 0 0 0 0 0 0 0 0 0 0 0 0 0 0 0 0 0 0 0 0 3 19 32 61 65 58 58 52 48 48 42 35 39 39 32 23 16 16 16 13
0 0 0 0 0 0 0 0 0 3 0 0 0 0 0 0 0 0 0 0 0 0 0 0 0 3 19 29 48 55 48 52 55 48 39 35 26 29 23 16 16 16 13
0 3 0 0 0 0 0 0 0 3 3 0 3 3 3 0 0 0 0 0 0 0 0 0 0 0 0 10 6 16 42 42 52 52 52 39 35 29 19 16 13 13 6
6 10 3 0 0 0 0 0 0 0 3 3 0 3 3 0 0 0 0 0 0 0 3 3 0 0 3 3 3 0 16 39 42 42 52 42 35 13 13 10 13 13 10
10 10 6 3 3 0 0 0 3 0 3 3 0 0 0 0 0 0 0 0 0 0 0 0 0 0 0 3 0 0 0 19 23 32 42 42 39 26 13 10 13 13 10
6 6 6 3 0 0 0 0 0 0 0 0 0 0 0 0 0 0 0 0 0 0 0 0 0 0 3 0 0 0 0 0 3 16 19 23 29 26 26 19 16 13 10
6 6 6 6 6 3 3 6 0 0 0 0 0 0 0 0 0 0 0 0 0 0 0 0 0 0 0 0 0 0 0 0 0 0 6 16 16 19 19 16 16 13 13
6 6 6 6 6 6 6 6 3 3 3 0 0 0 0 0 0 0 0 0 0 0 0 0 0 0 0 0 0 0 0 0 0 0 0 0 3 3 6 16 10 10 6
6 6 6 6 6 6 6 10 6 3 3 6 6 3 3 0 0 0 0 0 0 3 0 0 0 0 0 0 0 0 0 0 0 0 0 0 0 0 0 3 3 3 3
6 6 6 10 6 6 6 10 6 6 6 10 10 10 6 6 0 0 0 0 3 3 3 3 3 0 0 0 0 0 3 0 0 0 0 0 0 0 0 0 0 0 0
10 13 13 6 6 6 6 0 0 0 0 3 3 3 3 3 0 0 3 3 3 3 3 3 3 3 3 3 0 0 3 0 0 0 0 0 0 0 0 0 0 0 0
6 10 6 3 3 3 6 3 0 0 0 0 3 0 3 3 0 0 0 0 0 3 3 3 3 3 3 3 3 3 3 0 0 0 0 0 0 0 0 0 0 0 0
10 10 13 6 6 10 6 6 0 0 0 0 3 0 3 3 0 0 0 0 0 0 0 0 3 3 3 3 3 3 0 0 0 0 0 0 0 0 0 0 0 0 0
10 6 10 10 6 6 3 3 0 0 0 0 3 3 3 0 0 0 0 0 0 0 0 0 0 0 0 0 0 0 0 0 0 0 0 0 0 0 0 0 0 0 0
6 3 6 10 6 6 3 0 0 0 0 0 0 0 0 0 0 0 0 0 0 0 0 0 0 0 0 0 0 0 0 0 0 0 0 0 0 0 0 0 0 0 0
10 6 6 6 13 10 6 3 3 0 3 0 0 0 0 0 0 0 0 0 0 0 0 0 0 0 0 0 0 0 0 0 0 0 0 0 0 0 0 0 0 0 0
6 10 10 10 10 6 3 3 3 3 3 0 0 0 0 0 0 0 0 0 0 0 0 0 0 0 0 0 0 0 0 0 0 0 0 0 0 0 0 0 0 0 0
6 6 10 10 6 6 3 0 0 3 0 0 0 0 0 0 0 0 0 0 0 0 0 0 0 0 0 0 0 0 0 0 0 0 0 0 0 0 0 0 0 0 0
3 6 6 6 10 6 3 0 0 0 0 0 0 0 0 0 0 0 0 0 0 0 0 0 0 0 0 0 0 0 0 0 0 0 0 0 0 0 0 0 0 0 0
0 0 6 6 6 6 0 0 0 0 0 3 3 3 0 0 0 0 0 0 0 0 0 0 0 0 0 0 0 0 0 0 0 0 0 0 0 0 0 0 0 0 0
0 3 6 6 6 6 0 0 0 0 3 3 3 3 3 0 0 0 0 0 0 0 0 0 0 0 0 0 0 0 0 0 0 0 0 0 0 0 0 0 0 0 0

GEFSMA_con_cape1000_204.txt.gz
Probability
48 52 65 81 42 39 45 55 42 48 39 23 23 23 32 32 35 39 48 52 52 61 58 55 55 55 52 45 48 48 42 26 35 35 39 32 35 35 29 29 26 26 23
55 55 52 68 35 35 39 52 48 52 42 32 26 23 26 23 32 42 42 42 45 65 61 52 55 55 55 48 52 39 32 29 32 32 35 29 32 32 23 26 26 23 23
71 48 42 48 42 45 48 52 48 48 48 26 32 26 32 29 29 39 35 52 42 48 58 65 71 68 58 52 52 52 45 42 39 32 32 32 29 29 29 29 26 19 23
61 65 55 39 52 52 52 58 42 32 32 39 29 32 26 48 48 52 39 42 45 32 52 65 68 68 61 58 61 58 52 52 48 45 35 35 29 29 32 26 29 29 19
55 61 65 48 55 45 45 42 42 39 29 32 32 35 32 42 52 42 35 32 39 45 58 55 58 61 52 52 55 52 52 48 52 45 42 39 32 29 26 23 23 16 16
61 65 58 68 58 55 74 68 65 68 48 45 16 23 29 26 39 42 32 29 32 39 48 39 52 55 58 55 55 55 55 55 48 45 42 39 35 39 23 23 16 16 16
68 74 45 71 81 65 65 52 58 52 45 45 29 23 23 23 26 42 32 26 23 35 45 52 65 61 65 52 52 58 48 48 48 45 45 45 32 39 29 19 19 13 10
61 45 68 55 61 81 87 81 84 61 35 42 42 32 23 26 39 16 29 32 23 26 32 32 48 55 61 65 26 35 45 55 55 52 52 45 45 35 32 19 16 13 10
55 58 68 52 65 48 71 87 90 68 58 45 42 39 32 39 23 19 26 29 39 35 29 29 35 45 45 55 48 32 35 39 45 52 55 55 39 29 19 16 13 16 10
61 58 55 74 77 55 71 71 55 68 71 55 55 48 39 32 35 26 29 23 29 35 26 23 26 39 48 48 45 26 26 29 29 42 42 45 39 26 13 16 19 16 6
61 48 52 65 74 65 74 71 68 68 65 71 65 55 42 39 32 42 29 35 32 26 32 32 32 32 39 42 42 32 19 13 16 23 29 29 26 26 26 19 26 19 16
65 52 52 65 68 65 74 74 77 71 71 71 71 55 48 42 35 42 35 39 35 29 32 42 32 39 42 32 23 10 3 0 0 0 3 16 19 16 19 19 19 19 16
58 58 58 77 74 74 71 71 74 68 65 74 71 65 58 45 35 45 45 32 32 23 32 35 35 29 19 26 35 3 10 0 0 0 0 0 3 10 13 16 19 16 19
48 61 68 74 71 65 61 74 61 58 61 55 48 52 55 42 35 35 45 42 32 29 26 26 29 26 29 32 16 3 13 3 0 0 0 0 0 0 0 0 3 3 10
45 52 55 58 61 58 61 65 65 65 61 48 48 52 52 42 39 32 32 35 29 16 23 26 29 19 29 23 13 13 16 6 3 0 0 0 0 0 0 0 0 0 0
58 55 52 58 58 58 58 61 55 55 58 55 48 45 48 42 45 39 35 39 35 29 19 23 32 13 16 6 6 13 13 6 3 3 0 0 0 0 0 0 0 0 0
52 52 55 58 52 55 55 55 45 42 42 39 39 35 42 42 39 32 39 32 32 29 32 19 10 16 19 16 10 13 13 13 13 3 0 0 0 0 0 0 0 0 0
42 42 42 39 35 39 45 42 48 42 35 32 29 35 39 32 35 32 29 26 26 29 29 29 19 10 13 13 13 10 6 3 10 0 0 0 0 0 0 0 0 0 0
45 39 35 32 35 35 39 39 32 32 32 32 32 32 35 35 35 32 29 26 23 23 29 19 16 19 13 13 10 10 6 10 3 0 0 0 0 0 0 0 0 0 0
42 35 35 32 29 26 23 23 23 26 32 32 26 26 29 23 23 23 23 23 23 23 19 19 26 13 10 6 10 13 10 10 3 0 0 0 0 0 0 0 0 0 0
29 35 29 26 29 26 16 23 23 16 29 29 29 23 19 19 16 16 13 16 16 16 16 13 13 13 10 10 10 10 10 13 3 3 0 0 0 0 0 0 0 0 0
42 35 35 29 23 10 10 6 13 16 26 26 23 19 19 13 10 0 0 0 0 13 13 10 6 6 3 3 3 3 6 3 3 3 3 0 0 0 0 0 0 0 0
39 39 29 29 23 10 10 3 0 13 16 19 16 19 13 10 13 13 3 0 0 0 0 6 6 6 6 3 3 3 3 3 3 3 3 3 0 0 0 0 0 0 0
39 39 39 29 19 10 10 3 0 6 13 10 10 10 16 13 10 10 10 3 3 3 3 3 3 3 3 6 3 3 3 3 3 3 0 0 0 0 0 0 0 0 0
35 35 26 29 19 10 3 0 0 13 13 10 10 10 10 10 3 0 0 3 3 3 3 0 0 0 0 0 0 0 3 3 0 0 0 0 0 0 0 0 0 0 0
32 29 26 23 23 13 3 3 0 13 10 10 10 10 3 3 3 0 0 3 3 0 0 0 0 0 0 0 0 0 0 0 0 0 3 3 0 3 0 0 0 0 0

GEFSMA_con_cape1000_210.txt.gz
Probability
90 87 94 87 84 81 81 87 77 68 68 58 45 35 45 48 42 32 29 65 65 65 52 55 58 61 55 52 52 42 45 42 42 48 39 35 35 35 32 29 26 29 29
94 90 87 87 90 90 87 90 81 81 77 77 65 55 52 39 52 42 29 42 68 68 61 61 68 61 61 58 58 48 52 45 35 35 39 45 39 39 39 29 29 29 23
87 90 81 84 90 81 84 84 81 81 77 74 77 61 65 55 45 55 55 42 35 68 68 74 71 74 68 61 55 48 48 61 55 55 45 45 42 42 39 32 29 29 26
87 87 87 90 90 90 87 84 81 77 77 81 77 74 68 74 65 65 61 58 48 26 52 71 77 77 74 71 65 58 52 58 61 55 45 42 39 39 39 29 26 29 26
77 84 97 94 94 97 84 65 77 77 74 77 74 81 74 74 68 48 52 55 65 65 35 39 71 74 71 68 61 55 48 48 55 48 42 35 32 32 29 23 23 26 29
90 90 94 90 97 97 97 94 87 87 87 87 48 42 68 65 58 52 45 39 42 55 48 29 45 52 58 61 68 61 52 52 52 45 45 42 39 35 29 26 23 19 19
87 90 84 90 94 97 90 84 84 84 81 84 71 65 55 48 45 55 45 39 42 52 52 55 42 39 42 61 61 58 45 45 52 48 48 45 48 45 39 29 10 13 13
77 74 87 87 90 87 87 90 87 84 74 77 68 55 55 58 61 13 42 55 32 32 26 35 35 61 42 32 23 48 55 55 42 48 45 48 48 35 39 29 23 13 6
74 84 77 81 84 81 84 84 84 84 77 71 74 68 52 48 39 45 32 32 32 32 39 32 45 58 52 35 26 23 45 42 48 45 48 45 45 32 29 23 23 23 10
71 74 74 81 87 77 77 74 74 81 81 74 84 77 61 58 45 29 32 23 32 39 35 29 32 39 42 42 35 23 19 26 29 32 35 35 32 19 19 23 26 29 26
84 77 81 84 84 77 74 74 81 74 81 77 81 71 61 65 48 42 19 16 26 26 32 45 42 39 39 39 29 16 13 13 23 29 26 26 26 26 19 16 16 16 19
81 81 81 74 74 71 74 74 77 74 81 74 71 68 71 65 55 48 26 19 26 26 35 48 45 45 39 29 26 16 6 13 10 13 19 26 26 26 26 19 16 13 16
84 81 74 74 71 68 68 71 71 71 71 71 71 65 61 58 61 45 32 23 23 26 35 42 35 45 26 42 26 13 10 3 0 0 0 0 3 13 19 19 19 19 23
74 74 71 74 71 68 58 68 65 71 68 68 58 58 61 58 58 42 39 29 29 23 29 35 42 35 26 29 13 3 3 0 0 0 0 0 0 0 0 0 3 13 13
65 68 68 68 65 65 65 58 65 61 61 65 65 55 55 55 42 42 39 32 23 13 16 29 32 35 16 23 3 3 6 0 0 0 0 0 0 0 0 0 0 0 0
68 61 68 71 68 68 65 65 68 65 58 61 61 52 52 39 35 42 32 35 29 23 16 26 23 19 13 6 6 6 19 3 0 0 0 0 0 0 0 0 0 0 0
71 61 55 58 65 65 65 65 52 58 55 55 48 48 45 39 42 32 32 32 26 26 23 29 23 16 16 19 13 16 16 6 3 0 0 0 0 0 0 0 0 0 0
68 58 52 48 48 58 58 61 52 48 45 48 48 45 45 35 42 35 35 29 29 26 23 19 16 16 19 19 10 13 10 3 3 0 0 0 0 0 0 0 0 0 0
65 55 48 45 45 45 48 48 42 39 35 42 35 39 35 35 32 35 35 32 29 19 23 19 13 13 13 10 6 6 6 6 6 3 0 0 0 0 0 0 0 0 0
55 45 45 45 45 39 29 29 29 32 32 35 32 32 26 26 23 19 19 19 19 23 23 23 10 13 10 10 6 6 6 6 3 3 0 0 0 0 0 0 0 0 0
45 42 42 42 39 32 23 23 26 16 26 23 23 19 13 13 13 16 10 13 13 13 13 13 10 6 3 3 3 0 0 3 3 3 3 3 0 0 0 0 0 0 0
55 45 42 39 35 19 10 10 13 13 16 16 16 23 13 10 10 3 3 3 6 6 10 10 6 3 3 3 0 0 0 0 0 3 3 3 3 0 0 0 0 0 0
52 45 42 39 29 23 3 3 3 10 16 16 16 13 6 6 6 6 3 0 0 0 0 6 6 6 6 0 0 3 3 0 3 3 3 0 0 0 0 0 0 0 0
45 45 42 29 26 16 3 3 0 6 13 10 10 13 13 10 6 6 6 3 3 3 0 0 3 3 6 3 0 0 0 0 0 3 3 0 0 0 0 0 0 0 0
42 39 32 26 26 10 3 0 0 10 13 6 10 3 10 10 6 3 3 6 3 3 0 0 0 0 0 0 0 0 0 0 0 0 0 0 0 0 0 0 0 0 0
42 35 29 23 23 10 3 0 0 6 10 6 3 6 3 3 3 3 3 3 3 3 0 0 0 0 0 0 0 0 0 0 0 0 0 0 0 0 0 0 0 0 0

GEFSMA_con_cape1000_216.txt.gz
Probability
3 3 3 0 0 0 3 3 3 3 3 3 3 3 6 3 0 3 6 61 71 77 65 65 61 55 52 55 52 48 42 42 52 55 45 39 32 32 35 32 29 23 26
6 3 3 0 3 3 3 3 3 6 3 0 3 3 0 0 0 3 0 23 68 81 74 68 68 71 65 58 55 52 52 45 58 58 42 45 39 42 39 35 32 32 29
3 6 3 3 6 6 10 3 0 3 0 3 0 0 0 0 0 0 3 3 26 61 74 77 71 74 71 58 58 58 58 61 58 58 48 45 39 45 35 32 29 29 32
6 3 6 3 3 3 3 3 3 3 0 0 0 0 0 0 0 0 3 3 3 6 35 74 71 71 74 65 58 61 55 61 61 52 45 39 39 42 39 26 29 29 23
13 10 6 3 3 3 6 3 3 3 3 0 3 3 3 3 3 3 0 3 3 3 3 23 65 61 61 65 61 55 55 58 52 48 45 35 29 29 29 23 26 19 19
19 6 3 3 3 6 6 3 3 3 3 3 3 3 3 3 3 0 0 0 0 0 3 3 10 32 58 61 65 58 58 58 55 55 42 45 39 29 32 19 19 13 16
13 10 6 3 6 10 6 6 6 6 6 3 0 0 0 0 0 0 0 0 0 0 0 3 3 3 16 45 58 61 55 48 52 52 48 48 45 42 32 26 10 10 13
10 13 6 6 6 10 10 6 3 3 3 0 0 0 0 0 0 0 0 0 0 0 0 0 3 3 3 0 6 52 55 48 52 45 42 39 45 45 32 29 19 10 10
10 10 10 6 6 6 6 6 3 3 3 0 0 0 0 0 0 0 0 0 0 3 3 3 3 3 3 3 0 3 39 32 35 32 26 26 19 19 23 26 16 13 13
16 6 3 3 3 0 0 3 10 6 3 3 0 0 0 0 0 0 0 0 0 0 0 0 3 0 0 0 0 0 10 19 23 23 23 23 23 13 16 19 19 16 16
16 16 6 10 6 3 0 3 6 10 3 3 3 0 0 0 0 0 0 0 0 0 0 0 0 3 3 0 0 0 0 3 16 19 26 23 19 16 16 16 16 16 13
26 19 16 16 13 10 6 3 6 13 13 10 6 6 0 0 0 0 0 0 0 0 0 0 0 0 0 0 0 3 0 0 0 0 10 16 19 19 16 16 13 16 13
26 23 19 19 16 16 16 13 16 16 13 10 10 6 6 0 0 0 0 0 0 0 0 0 0 0 0 0 0 0 0 0 0 0 0 0 3 6 10 6 13 10 10
26 19 13 16 19 23 19 16 23 19 19 13 13 6 6 6 0 0 0 0 0 0 0 0 0 0 0 0 0 0 0 0 0 0 0 0 0 0 0 0 3 3 3
29 19 16 16 13 19 23 16 13 16 16 13 13 13 3 3 0 0 0 0 0 0 0 0 0 0 0 0 0 0 0 0 0 0 0 0 0 0 0 0 0 0 0
23 19 16 13 16 16 10 6 6 3 6 6 6 6 3 3 0 0 0 0 0 0 0 0 0 0 0 0 0 0 0 0 0 0 0 0 0 0 0 0 0 0 0
19 13 13 16 13 13 10 10 10 10 10 6 6 3 3 6 0 0 0 0 0 0 0 0 0 0 0 0 0 0 0 0 0 0 0 0 0 0 0 0 0 0 0
19 19 13 16 16 6 6 10 10 10 6 3 3 0 0 0 3 3 3 3 0 0 0 0 0 0 0 0 0 0 0 0 0 0 0 0 0 0 0 0 0 0 0
19 19 19 19 10 3 6 6 6 6 3 0 0 0 0 3 3 3 3 3 3 3 0 0 0 0 0 0 0 0 0 0 0 0 0 0 0 0 0 0 0 0 0
19 19 19 16 13 10 10 10 6 3 0 0 0 0 3 3 3 3 3 3 3 3 0 0 0 0 0 0 0 0 0 0 0 0 0 0 0 0 0 0 0 0 0
29 19 23 23 16 19 16 13 6 6 6 3 3 3 3 3 3 3 3 3 3 3 0 0 0 0 0 0 0 0 0 0 0 0 0 0 0 0 0 0 0 0 0
26 23 23 19 19 16 10 6 6 3 0 0 0 3 3 3 3 3 3 3 3 3 0 0 0 0 0 0 0 0 0 0 0 0 0 0 0 0 0 0 0 0 0
19 19 16 16 13 13 3 3 3 0 3 3 3 3 3 3 3 3 3 3 3 0 0 0 0 0 0 0 0 0 0 0 0 0 0 0 0 0 0 0 0 0 0
19 16 13 13 10 6 3 0 0 0 0 0 3 3 3 3 3 3 3 3 3 3 0 0 0 0 0 0 0 0 0 0 0 0 0 0 0 0 0 0 0 0 0
19 13 6 6 10 6 0 0 0 0 0 0 0 0 3 3 3 0 3 3 3 3 0 0 0 0 0 0 0 0 0 0 0 0 0 0 0 0 0 0 0 0 0
13 10 6 6 10 6 6 0 0 0 0 0 0 0 0 0 3 0 0 3 3 3 0 0 0 0 0 0 0 0 0 0 0 0 0 0 0 0 0 0 0 0 0

GEFSMA_con_cape1000_222.txt.gz
Probability
0 0 0 0 0 3 3 3 3 6 3 3 6 6 6 6 6 6 13 32 58 61 52 61 65 61 58 58 61 58 55 48 58 55 48 39 29 39 26 19 29 29 19
0 0 0 0 0 0 0 3 0 0 0 6 3 10 10 6 6 3 10 13 48 68 55 61 65 55 52 52 55 52 61 52 55 58 55 48 32 35 35 29 26 26 26
0 0 0 0 0 0 3 3 3 0 0 0 3 3 3 6 6 6 10 10 16 45 71 71 71 68 58 58 61 58 58 58 65 61 58 48 39 32 35 42 29 29 23
0 0 0 0 0 0 0 3 3 3 0 0 3 0 0 6 6 6 6 6 6 13 39 68 74 74 74 61 61 61 58 58 65 58 58 48 39 26 29 32 32 32 26
3 3 3 3 3 3 6 6 6 3 3 3 0 0 0 0 3 3 10 3 3 3 6 32 61 68 61 58 61 65 61 58 55 55 55 45 45 29 29 19 23 19 26
3 3 3 3 0 0 0 0 6 6 0 0 0 0 0 0 0 0 0 0 3 3 0 0 13 32 45 55 61 65 55 61 52 55 55 55 55 48 35 23 19 16 13
10 3 3 0 0 0 0 0 0 0 0 0 0 0 0 0 0 0 0 3 6 3 6 3 6 6 13 32 48 48 55 65 55 52 48 52 45 42 29 23 16 10 10
6 10 6 0 0 0 0 0 0 0 0 0 0 0 0 0 0 0 0 0 0 3 3 6 10 10 6 13 10 35 45 45 52 52 45 39 35 35 26 16 16 16 16
6 6 6 3 0 0 0 0 0 0 0 0 0 0 0 0 0 0 0 0 0 0 0 3 3 10 16 10 6 6 32 35 35 42 35 35 29 26 19 13 13 13 13
10 6 6 3 3 0 0 0 0 0 0 0 0 0 0 0 0 0 0 0 0 0 0 0 0 10 10 6 0 3 6 26 29 26 26 26 26 26 19 19 16 10 10
3 6 3 3 3 3 3 3 0 0 0 0 0 0 0 0 0 0 0 0 0 3 0 0 3 3 3 3 10 3 3 0 0 16 19 19 19 23 23 19 16 13 13
3 10 6 3 3 0 0 3 3 0 0 3 3 3 3 0 0 0 0 0 0 3 0 0 0 3 3 3 3 0 0 0 0 0 0 13 16 16 19 23 19 13 10
10 10 13 10 10 6 6 3 6 10 6 3 3 3 6 6 0 0 0 0 0 0 0 0 0 3 0 0 0 0 0 0 0 0 0 0 0 3 6 10 13 13 16
10 10 6 6 13 13 13 6 3 6 3 3 3 3 0 0 0 0 0 0 0 0 0 0 0 0 0 0 0 0 0 0 0 0 0 0 0 0 0 0 0 0 0
23 13 10 13 6 6 3 3 10 10 6 3 3 3 0 0 0 0 0 0 3 6 6 0 0 0 0 0 0 0 0 0 0 0 0 0 0 0 0 0 0 0 0
13 13 19 10 6 6 6 10 6 6 6 3 3 0 0 0 0 0 0 0 0 3 3 0 0 0 0 0 0 0 0 0 0 0 0 0 0 0 0 0 0 0 0
16 16 16 13 13 10 10 10 6 3 3 0 0 0 0 0 0 0 0 0 0 0 3 3 0 0 0 0 0 0 0 0 0 0 0 0 0 0 0 0 0 0 0
16 16 16 13 13 13 10 3 3 3 3 3 3 0 0 0 0 0 3 3 3 0 3 3 3 0 0 0 0 0 0 0 0 0 0 0 0 0 0 0 0 0 0
10 10 10 13 13 6 3 0 0 3 3 3 3 3 0 0 3 3 3 3 3 3 0 0 3 0 0 0 0 0 0 0 0 0 0 0 0 0 0 0 0 0 0
13 10 6 3 0 0 0 3 3 3 6 3 3 3 0 0 0 3 3 3 3 3 3 3 0 0 0 0 0 0 0 0 0 0 0 0 0 0 0 0 0 0 0
13 6 6 3 0 0 0 0 3 3 6 3 6 6 0 0 0 0 3 3 3 3 3 3 3 0 0 0 0 0 0 0 0 0 0 0 0 0 0 0 0 0 0
3 3 6 10 6 10 3 0 0 6 6 6 6 0 0 0 0 0 0 0 0 3 3 3 3 3 3 0 0 0 0 0 0 0 0 0 0 0 0 0 0 0 0
3 3 3 6 6 6 0 0 0 0 6 6 3 3 3 3 0 3 0 0 0 0 0 3 3 3 3 3 0 0 0 0 0 0 0 0 0 0 0 0 0 0 0
0 3 3 3 6 3 0 0 0 0 0 3 3 3 3 3 3 3 3 3 3 3 3 0 3 3 3 3 0 0 0 0 0 0 0 0 0 0 0 0 0 0 0
3 3 0 3 6 6 3 0 0 0 0 0 0 0 0 3 0 0 0 3 3 3 0 0 0 0 0 0 0 0 0 0 0 0 0 0 0 0 0 0 0 0 0
6 6 6 3 3 6 3 0 0 0 0 0 0 0 0 0 0 0 0 0 3 3 3 3 0 0 0 0 0 0 0 0 0 0 0 0 0 0 0 0 0 0 0

GEFSMA_con_cape1000_228.txt.gz
Probability
61 42 61 65 32 29 32 45 45 52 42 32 26 23 23 29 19 26 35 42 32 42 42 48 48 55 55 55 55 55 52 48 52 58 48 48 42 35 35 39 39 35 32
61 52 55 52 39 39 29 39 42 45 42 35 26 23 32 26 29 32 29 42 42 45 52 55 48 58 58 58 55 48 45 48 52 58 55 45 45 42 39 39 39 42 35
61 52 48 45 39 39 45 45 35 42 45 39 39 29 35 39 39 42 42 48 48 52 61 55 65 71 65 55 58 55 55 55 55 65 65 48 45 42 39 32 39 42 26
65 68 52 52 52 35 39 55 48 48 48 42 48 39 42 61 55 52 42 48 55 42 61 58 61 65 61 58 61 55 58 58 52 45 52 45 45 45 32 32 32 35 29
61 55 65 71 61 55 42 35 42 42 42 55 45 61 52 45 48 29 29 32 48 58 55 55 52 65 58 55 55 55 52 58 55 52 45 45 45 42 45 32 26 32 35
68 55 52 58 42 58 42 45 55 71 61 74 19 16 39 39 35 35 32 19 35 35 35 45 55 45 52 58 61 55 55 55 52 48 45 42 42 45 42 42 29 26 23
71 61 58 65 61 58 71 45 48 48 42 52 35 39 26 23 29 45 42 35 26 29 35 42 48 48 52 45 45 52 45 52 52 52 52 42 39 42 39 32 29 19 19
61 42 65 55 68 68 68 68 65 42 35 48 48 42 32 32 45 10 35 29 23 32 26 19 39 48 52 55 23 35 39 42 39 48 42 45 45 39 32 32 32 16 10
52 55 52 58 58 55 65 74 68 55 48 58 45 39 29 26 29 23 32 23 35 29 26 29 32 35 45 48 48 23 35 39 29 32 32 35 35 32 26 26 23 19 13
58 45 52 52 55 52 71 68 55 65 68 65 52 58 45 26 26 26 29 23 26 35 26 19 13 32 35 45 42 26 29 23 29 32 32 29 32 29 23 23 26 23 19
58 48 58 58 65 61 65 65 61 61 65 58 48 48 52 52 29 39 26 29 26 19 29 39 39 32 42 35 45 32 16 10 16 23 29 29 19 23 23 29 26 23 19
65 61 58 65 71 68 61 61 65 61 65 65 52 52 45 52 48 32 39 39 26 32 35 42 35 39 42 35 29 13 6 0 0 3 3 10 16 19 23 19 23 23 19
58 68 58 77 71 68 68 68 65 58 65 65 61 58 45 48 39 42 32 32 29 32 42 39 26 32 32 32 42 6 0 0 0 0 0 0 0 3 13 16 16 16 16
48 65 65 71 65 61 58 68 65 65 61 55 52 55 55 42 35 29 29 29 26 26 29 23 19 19 23 26 16 0 6 0 0 0 0 0 0 0 0 3 6 6 6
45 58 58 61 61 55 58 55 55 52 55 48 45 45 45 35 29 26 19 29 26 13 23 29 10 16 19 23 6 6 13 3 0 0 0 0 0 0 0 0 0 0 0
55 58 58 61 65 61 52 55 48 52 48 52 52 48 42 29 29 26 29 23 26 19 19 13 16 13 16 3 0 13 16 3 0 0 0 0 0 0 0 0 0 0 0
58 58 61 55 45 45 48 52 52 48 45 48 42 39 42 42 39 32 26 19 23 23 19 13 6 10 13 13 13 16 10 13 3 0 0 0 0 0 0 0 0 0 0
55 55 52 48 45 45 48 48 48 48 45 45 42 39 39 32 39 32 26 23 23 23 19 19 13 13 16 13 13 13 3 3 3 0 0 0 0 0 0 0 0 0 0
52 45 42 42 42 45 45 45 45 42 42 35 35 32 32 35 35 35 26 19 19 13 13 13 13 13 10 13 13 6 6 3 3 0 0 0 0 0 0 0 0 0 0
48 48 42 39 39 35 42 42 45 45 32 29 29 29 26 26 29 23 23 23 19 16 13 13 13 13 13 10 10 10 10 10 3 0 0 0 0 0 0 0 0 0 0
32 35 32 32 26 26 26 35 39 35 32 29 29 26 23 23 13 13 13 16 16 10 10 10 13 13 13 10 6 6 6 6 10 0 3 3 3 0 0 0 0 0 0
35 35 26 19 23 19 10 13 19 26 29 29 26 23 16 13 10 0 0 0 0 10 6 6 6 6 6 6 6 3 6 3 0 0 3 0 3 3 3 3 0 0 0
35 32 26 19 19 13 6 3 0 19 23 26 23 19 13 10 13 13 0 0 0 0 0 3 6 6 6 6 6 3 3 3 0 10 0 0 3 0 3 0 0 0 0
32 32 26 23 19 10 3 0 0 13 19 19 19 19 16 13 13 13 13 6 6 3 3 3 3 3 3 10 10 3 3 3 3 3 0 3 0 0 0 0 0 0 0
32 29 19 16 16 13 3 0 0 13 16 16 16 16 16 16 6 6 6 10 10 6 3 3 3 3 3 0 0 6 3 3 3 3 3 0 0 0 0 0 0 0 0
29 19 16 16 16 13 3 0 0 10 10 16 16 16 6 6 6 0 6 10 6 10 6 3 3 3 3 3 0 3 3 3 3 3 6 0 0 0 0 0 0 0 0

GEFSMA_con_cape1000_234.txt.gz
Probability
81 81 81 81 68 68 68 68 61 58 52 52 45 32 32 42 35 39 35 65 68 68 65 65 55 55 58 58 55 55 55 48 52 48 45 42 42 39 45 42 29 29 32
87 87 84 84 81 74 61 65 68 65 52 61 55 48 42 45 52 45 35 45 61 68 74 65 52 55 52 55 58 52 55 48 52 52 52 45 48 45 35 35 39 48 39
90 94 87 84 84 77 77 81 71 65 65 55 48 42 48 52 55 58 48 29 32 55 71 68 65 68 58 55 55 55 61 55 52 55 55 48 42 29 32 35 35 42 39
87 94 90 81 81 71 74 77 71 81 68 65 65 55 48 71 71 68 61 55 48 32 52 77 74 68 65 48 52 52 52 52 55 52 52 48 42 35 32 29 23 29 32
84 90 87 90 84 77 71 48 71 71 71 71 61 71 68 65 65 48 48 42 52 58 48 58 81 74 68 52 48 55 55 55 55 48 48 52 39 39 39 35 35 32 29
84 87 87 87 87 87 87 81 81 77 71 71 35 42 68 74 65 61 45 48 48 52 61 42 48 42 65 61 61 58 48 48 52 48 52 48 45 42 32 32 29 29 23
77 87 74 84 84 87 87 74 77 68 71 65 61 61 68 58 61 58 58 55 39 48 52 52 45 35 26 45 48 65 58 55 52 52 48 45 42 39 32 32 32 26 23
74 68 81 74 71 74 77 84 84 77 71 71 61 55 58 42 45 29 45 58 42 48 42 32 48 48 29 26 19 48 71 61 58 52 48 45 42 35 35 35 35 26 16
74 81 71 68 74 74 74 81 84 74 68 58 52 58 45 39 42 45 35 35 45 48 48 45 35 42 35 32 23 29 52 42 48 45 39 39 35 32 32 29 29 29 26
71 68 77 71 77 77 81 77 77 77 74 55 61 65 52 52 42 29 39 42 45 42 42 26 29 42 42 39 29 19 32 35 39 42 45 42 32 32 32 29 26 29 19
81 74 74 77 84 81 77 81 77 77 74 68 61 61 58 58 55 48 32 35 42 42 48 35 39 39 35 35 26 23 16 19 29 35 32 39 35 32 32 29 29 29 26
84 84 84 84 84 81 77 81 81 74 77 77 68 65 68 55 58 55 39 42 39 39 35 39 42 42 35 32 19 13 6 6 6 13 16 26 32 29 29 26 26 26 23
81 84 77 81 84 81 81 81 81 77 74 71 71 74 65 65 55 55 48 39 32 32 32 42 39 39 29 29 26 6 10 0 0 0 0 3 6 13 10 23 26 23 19
81 81 81 77 77 77 74 81 77 77 77 74 71 71 74 71 58 58 48 35 29 26 26 26 32 26 19 26 16 3 6 0 0 0 0 0 0 0 3 3 3 3 10
77 81 81 81 77 74 77 84 77 81 81 74 68 61 61 61 55 52 52 42 32 26 16 10 23 23 23 23 10 3 13 3 0 0 0 0 0 0 0 0 0 0 0
81 74 71 81 77 74 77 77 74 74 71 65 65 61 65 55 55 52 45 42 42 29 23 23 19 19 16 10 0 16 23 3 0 0 0 0 0 0 0 0 0 0 0
81 81 74 77 68 71 71 68 61 61 61 58 55 52 45 48 45 45 42 39 39 29 26 19 16 19 16 10 10 13 13 3 3 0 0 0 0 0 0 0 0 0 0
65 68 74 77 68 61 65 58 58 55 55 52 52 45 42 39 39 42 42 35 35 26 23 16 16 16 13 10 10 13 3 3 0 0 0 0 0 0 0 0 0 0 0
55 55 65 58 55 52 52 52 58 55 52 52 48 45 35 35 35 35 32 32 26 23 23 19 16 16 13 13 10 10 3 3 3 0 0 0 0 0 0 0 0 0 0
55 58 52 55 48 52 35 45 48 45 48 45 42 42 39 32 29 32 29 26 23 23 23 19 16 16 13 13 10 6 6 6 3 0 0 0 0 0 0 0 0 0 0
39 55 45 45 45 32 23 32 29 35 35 26 29 29 29 26 23 23 19 23 19 23 19 16 13 13 10 10 3 3 6 6 3 3 0 0 0 0 0 0 0 0 0
45 48 48 39 32 19 10 10 19 23 23 26 29 19 23 19 13 10 10 6 13 19 16 23 13 10 10 10 6 3 3 3 3 3 3 0 0 0 0 0 0 0 0
45 48 48 42 35 16 6 6 3 16 19 23 19 23 19 16 10 13 6 0 0 0 0 19 13 10 10 10 6 3 3 6 3 3 3 3 0 0 0 0 0 0 0
48 48 42 39 32 19 6 3 6 6 16 19 19 19 16 16 10 13 13 13 10 6 0 0 0 3 3 13 10 6 6 6 6 6 3 3 3 0 0 0 0 0 0
48 52 45 42 35 16 3 3 0 16 13 13 13 13 13 13 10 10 10 13 13 13 0 0 0 0 0 3 6 6 6 6 3 3 3 3 3 3 0 0 0 0 0
48 48 42 39 35 26 10 3 0 10 13 10 13 13 13 13 6 3 6 13 13 13 10 3 3 0 0 0 0 3 6 3 3 3 3 3 3 0 0 0 0 0 0

GEFSMA_con_cape1000_240.txt.gz
Probability
3 3 3 10 6 3 3 3 3 3 3 6 10 3 0 0 0 0 3 52 71 65 65 58 55 55 45 45 58 58 45 48 52 58 52 39 42 45 45 45 35 35 39
3 6 6 3 0 0 0 0 0 3 3 6 6 6 3 3 0 0 0 16 71 74 77 65 61 61 61 52 55 58 58 52 52 45 45 45 48 55 45 45 42 42 45
6 3 3 3 3 3 6 3 3 3 0 3 3 3 6 3 6 6 0 0 13 52 71 74 77 68 58 55 61 55 55 61 55 45 48 48 45 45 48 42 39 39 45
3 3 3 0 0 6 3 0 0 0 0 0 0 0 0 3 10 0 0 0 0 3 39 74 74 71 74 58 65 55 52 52 52 48 55 48 42 39 32 32 26 35 35
6 0 0 0 0 0 0 0 0 0 0 3 0 0 0 0 0 0 0 0 0 0 3 19 71 77 74 61 65 61 52 45 48 45 42 45 45 45 39 29 26 23 26
6 6 6 3 3 3 0 3 3 0 0 0 0 0 0 0 0 0 0 0 0 0 3 6 13 32 65 61 65 61 58 52 45 48 39 39 39 42 39 32 26 19 19
16 10 10 6 3 3 3 6 3 3 0 0 0 0 0 0 0 0 0 0 0 0 6 6 0 0 6 45 58 58 55 48 45 42 45 48 39 42 39 29 29 29 19
19 19 10 6 6 6 3 6 6 0 0 0 0 0 0 0 0 0 0 0 0 0 0 10 3 3 3 6 19 45 48 48 48 45 42 48 42 39 39 35 32 26 19
19 19 13 10 10 3 3 3 6 6 0 0 0 3 0 0 0 0 0 0 0 0 0 0 6 6 3 3 3 13 42 45 45 52 52 48 39 35 32 35 32 29 23
32 29 23 16 16 6 6 3 3 3 0 0 0 0 0 0 0 0 0 0 0 0 0 3 0 0 6 6 3 3 19 29 42 45 42 45 42 39 29 29 23 26 32
32 32 26 16 13 10 6 0 3 3 3 0 0 0 0 0 0 0 0 0 0 0 0 0 0 0 0 3 0 3 0 13 19 26 32 29 35 35 32 26 19 23 26
32 32 23 16 13 10 16 3 3 6 6 0 0 0 0 0 0 0 0 0 0 0 0 0 0 0 0 0 0 6 3 3 3 6 16 23 29 26 26 26 23 26 26
26 29 39 26 13 13 13 10 6 6 6 6 6 6 3 3 0 0 0 0 0 0 0 0 0 0 0 0 0 0 0 3 0 0 3 3 13 13 19 26 26 26 26
29 23 32 29 26 19 16 13 13 10 10 6 6 6 3 0 0 3 3 0 0 0 0 0 0 0 0 0 0 0 0 0 0 0 0 0 0 0 0 6 6 6 6
19 13 23 23 26 29 23 19 19 13 16 10 10 6 6 3 3 0 3 0 0 0 0 0 0 0 0 0 0 0 0 0 0 0 0 0 0 0 0 0 0 0 0
16 16 13 16 19 16 13 19 16 23 16 16 13 6 6 3 3 3 0 0 0 0 0 0 0 0 0 0 0 0 0 0 0 0 0 0 0 0 0 0 0 0 0
16 16 16 16 13 13 19 19 19 19 19 16 16 13 10 10 10 3 3 0 0 0 0 0 0 0 0 0 0 0 0 0 0 0 0 0 0 0 0 0 0 0 0
19 13 16 16 16 13 19 19 19 19 23 19 13 10 6 6 3 6 6 3 0 0 0 0 0 0 0 0 0 0 0 0 0 0 0 0 0 0 0 0 0 0 0
16 13 10 10 10 13 16 19 19 16 16 13 10 10 3 3 6 6 6 3 3 0 0 0 0 0 0 3 0 0 0 0 0 0 0 0 0 0 0 0 0 0 0
16 16 13 13 10 13 13 16 16 19 13 13 10 6 3 3 3 6 6 6 3 3 0 0 0 0 0 0 0 3 3 0 0 0 0 0 0 0 0 0 0 0 0
16 16 16 13 13 13 13 13 19 13 13 6 6 3 6 6 6 3 3 6 6 3 3 0 0 0 0 0 0 0 0 0 0 0 0 0 0 0 0 0 0 0 0
16 16 16 13 13 13 13 13 10 10 6 3 3 3 3 3 6 3 3 3 3 6 3 0 0 0 0 0 0 0 0 0 0 0 0 0 0 0 0 0 0 0 0
16 16 16 16 13 13 13 10 6 6 3 3 3 6 6 10 3 3 3 0 0 0 0 0 0 0 0 0 0 0 0 0 0 0 0 0 0 0 0 0 0 0 0
23 19 19 16 13 13 10 3 0 0 0 0 3 3 6 6 6 3 3 3 0 0 0 0 0 0 0 0 0 0 0 0 0 0 0 0 0 0 0 0 0 0 0
19 16 16 13 13 10 10 3 0 3 3 3 3 3 3 3 6 3 3 3 0 0 0 0 0 0 0 0 0 0 0 0 0 0 0 0 0 0 0 0 0 0 0
23 19 19 13 10 10 6 3 0 6 6 3 3 3 3 3 3 0 0 3 0 0 0 0 0 0 0 0 0 0 0 0 0 0 0 3 0 0 0 0 0 0 0